Observation data for Amarillo 15 North Northwest on 11/14/2017      Previous  Date       Current Mesonet Observations  Soil Data  Daily Summary Page  Observations in Plain Language
KAM3 140601Z 20007KT 10/09 A3012 RMK A01 T00960093  RH  098%=      5-min Rain = 0
KAM3 140602Z 20007KT 10/09 A3012 RMK A01 T00960094  RH  098%=      5-min Rain = 0
KAM3 140603Z 20007KT 10/09 A3012 RMK A01 T00960094  RH  098%=      5-min Rain = 0
KAM3 140604Z 20007KT 10/09 A3012 RMK A01 T00960094  RH  098%=      5-min Rain = 0
KAM3 140605Z 20008KT 10/09 A3012 RMK A01 T00970094  RH  098%=      5-min Rain = 0
KAM3 140606Z 20007KT 10/10 A3012 RMK A01 T00970095  RH  099%=      5-min Rain = 0
KAM3 140607Z 20008KT 10/10 A3012 RMK A01 T00970095  RH  098%=      5-min Rain = 0
KAM3 140608Z 19008KT 10/10 A3012 RMK A01 T00980095  RH  098%=      5-min Rain = 0
KAM3 140609Z 19008KT 10/09 A3012 RMK A01 T00970094  RH  098%=      5-min Rain = 0
KAM3 140610Z 20008KT 10/10 A3012 RMK A01 T00980095  RH  098%=      5-min Rain = 0
KAM3 140611Z 20008KT 10/10 A3012 RMK A01 T00980095  RH  098%=      5-min Rain = 0
KAM3 140612Z 20008KT 10/10 A3012 RMK A01 T00980096  RH  098%=      5-min Rain = 0
KAM3 140613Z 20009KT 10/10 A3012 RMK A01 T00990095  RH  098%=      5-min Rain = 0
KAM3 140614Z 20008KT 10/10 A3012 RMK A01 T00990095  RH  098%=      5-min Rain = 0
KAM3 140615Z 20009KT 10/10 A3012 RMK A01 T00990095  RH  097%=      5-min Rain = 0
KAM3 140616Z 20008KT 10/10 A3012 RMK A01 T00990095  RH  097%=      5-min Rain = 0
KAM3 140617Z 20008KT 10/10 A3012 RMK A01 T00990095  RH  098%=      5-min Rain = 0
KAM3 140618Z 20009KT 10/10 A3012 RMK A01 T00990095  RH  098%=      5-min Rain = 0
KAM3 140619Z 20008KT 10/10 A3012 RMK A01 T00980095  RH  098%=      5-min Rain = 0
KAM3 140620Z 20008KT 10/10 A3012 RMK A01 T00980095  RH  098%=      5-min Rain = 0
KAM3 140621Z 21008KT 10/10 A3012 RMK A01 T00980095  RH  098%=      5-min Rain = 0
KAM3 140622Z 21008KT 10/10 A3012 RMK A01 T00980095  RH  098%=      5-min Rain = 0
KAM3 140623Z 21008KT 10/10 A3011 RMK A01 T00980095  RH  098%=      5-min Rain = 0
KAM3 140624Z 21009KT 10/10 A3011 RMK A01 T00980096  RH  098%=      5-min Rain = 0
KAM3 140625Z 21009KT 10/10 A3011 RMK A01 T00980096  RH  099%=      5-min Rain = 0
KAM3 140626Z 21009KT 10/10 A3011 RMK A01 T00980096  RH  099%=      5-min Rain = 0
KAM3 140627Z 21009KT 10/10 A3011 RMK A01 T00980096  RH  099%=      5-min Rain = 0
KAM3 140628Z 21009KT 10/10 A3011 RMK A01 T00980096  RH  099%=      5-min Rain = 0
KAM3 140629Z 21009KT 10/10 A3011 RMK A01 T00980096  RH  099%=      5-min Rain = 0
KAM3 140630Z 21009KT 10/10 A3011 RMK A01 T00980096  RH  099%=      5-min Rain = 0
KAM3 140631Z 21009KT 10/10 A3011 RMK A01 T00980096  RH  098%=      5-min Rain = 0
KAM3 140632Z 21009KT 10/10 A3011 RMK A01 T00970095  RH  099%=      5-min Rain = 0
KAM3 140633Z 20009KT 10/10 A3011 RMK A01 T00970095  RH  099%=      5-min Rain = 0
KAM3 140634Z 20009KT 10/10 A3011 RMK A01 T00960095  RH  099%=      5-min Rain = 0
KAM3 140635Z 20009KT 10/10 A3011 RMK A01 T00960095  RH  099%=      5-min Rain = 0
KAM3 140636Z 20009KT 10/10 A3011 RMK A01 T00960095  RH  099%=      5-min Rain = 0
KAM3 140637Z 20009KT 10/10 A3011 RMK A01 T00950095  RH  100%=      5-min Rain = 0
KAM3 140638Z 20010KT 10/10 A3011 RMK A01 T00950095  RH  100%=      5-min Rain = 0
KAM3 140639Z 20010KT 10/10 A3011 RMK A01 T00950095  RH  100%=      5-min Rain = 0
KAM3 140640Z 20010KT 10/10 A3011 RMK A01 T00950095  RH  100%=      5-min Rain = 0
KAM3 140641Z 20010KT 10/10 A3011 RMK A01 T00950095  RH  100%=      5-min Rain = 0
KAM3 140642Z 20010KT 10/10 A3011 RMK A01 T00950095  RH  100%=      5-min Rain = 0
KAM3 140643Z 20010KT 10/10 A3011 RMK A01 T00950095  RH  100%=      5-min Rain = 0
KAM3 140644Z 20010KT 10/10 A3011 RMK A01 T00950095  RH  100%=      5-min Rain = 0
KAM3 140645Z 20009KT 10/09 A3011 RMK A01 T00950094  RH  100%=      5-min Rain = 0
KAM3 140646Z 21009KT 09/09 A3011 RMK A01 T00940094  RH  100%=      5-min Rain = 0
KAM3 140647Z 21009KT 09/09 A3011 RMK A01 T00940094  RH  100%=      5-min Rain = 0
KAM3 140648Z 21008KT 09/09 A3011 RMK A01 T00940093  RH  100%=      5-min Rain = 0
KAM3 140649Z 21009KT 09/09 A3011 RMK A01 T00930092  RH  100%=      5-min Rain = 0
KAM3 140650Z 21008KT 09/09 A3011 RMK A01 T00920091  RH  100%=      5-min Rain = 0
KAM3 140651Z 21008KT 09/09 A3011 RMK A01 T00910091  RH  100%=      5-min Rain = 0
KAM3 140652Z 21008KT 09/09 A3011 RMK A01 T00910091  RH  100%=      5-min Rain = 0
KAM3 140653Z 21009KT 09/09 A301 RMK A01 T00900090  RH  100%=      5-min Rain = 0
KAM3 140654Z 21009KT 09/09 A301 RMK A01 T00890089  RH  100%=      5-min Rain = 0
KAM3 140655Z 21009KT 09/09 A301 RMK A01 T00890089  RH  100%=      5-min Rain = 0
KAM3 140656Z 21009KT 09/09 A301 RMK A01 T00880088  RH  100%=      5-min Rain = 0
KAM3 140657Z 20009KT 09/09 A301 RMK A01 T00880088  RH  100%=      5-min Rain = 0
KAM3 140658Z 20009KT 09/09 A301 RMK A01 T00870088  RH  100%=      5-min Rain = 0
KAM3 140659Z 20009KT 09/09 A301 RMK A01 T00880088  RH  100%=      5-min Rain = 0
KAM3 140700Z 20008KT 09/09 A301 RMK A01 T00880088  RH  100%=      5-min Rain = 0
KAM3 140701Z 20008KT 09/09 A301 RMK A01 T00870087  RH  100%=      5-min Rain = 0
KAM3 140702Z 20008KT 09/09 A301 RMK A01 T00870087  RH  100%=      5-min Rain = 0
KAM3 140703Z 20008KT 09/09 A301 RMK A01 T00870087  RH  100%=      5-min Rain = 0
KAM3 140704Z 20008KT 09/09 A301 RMK A01 T00870087  RH  100%=      5-min Rain = 0
KAM3 140705Z 20008KT 09/09 A301 RMK A01 T00870087  RH  100%=      5-min Rain = 0
KAM3 140706Z 20008KT 09/09 A301 RMK A01 T00870087  RH  100%=      5-min Rain = 0
KAM3 140707Z 20008KT 09/09 A301 RMK A01 T00870087  RH  100%=      5-min Rain = 0
KAM3 140708Z 20009KT 09/09 A301 RMK A01 T00870087  RH  100%=      5-min Rain = 0
KAM3 140709Z 20009KT 09/09 A301 RMK A01 T00860086  RH  100%=      5-min Rain = 0
KAM3 140710Z 20009KT 09/09 A301 RMK A01 T00870087  RH  100%=      5-min Rain = 0
KAM3 140711Z 20009KT 09/09 A301 RMK A01 T00860086  RH  100%=      5-min Rain = 0
KAM3 140712Z 20009KT 09/09 A301 RMK A01 T00860086  RH  100%=      5-min Rain = 0
KAM3 140713Z 20009KT 09/09 A301 RMK A01 T00860086  RH  100%=      5-min Rain = 0
KAM3 140714Z 20009KT 09/09 A301 RMK A01 T00860086  RH  100%=      5-min Rain = 0
KAM3 140715Z 20009KT 09/09 A301 RMK A01 T00860086  RH  100%=      5-min Rain = 0
KAM3 140716Z 20008KT 09/09 A301 RMK A01 T00850085  RH  100%=      5-min Rain = 0
KAM3 140717Z 20008KT 09/09 A301 RMK A01 T00850085  RH  100%=      5-min Rain = 0
KAM3 140718Z 20008KT 09/09 A301 RMK A01 T00850085  RH  100%=      5-min Rain = 0
KAM3 140719Z 20009KT 09/09 A301 RMK A01 T00850085  RH  100%=      5-min Rain = 0
KAM3 140720Z 20009KT 09/09 A301 RMK A01 T00850085  RH  100%=      5-min Rain = 0
KAM3 140721Z 20010KT 09/09 A301 RMK A01 T00850085  RH  100%=      5-min Rain = 0
KAM3 140722Z 20010KT 09/09 A301 RMK A01 T00850085  RH  100%=      5-min Rain = 0
KAM3 140723Z 20011KT 09/09 A301 RMK A01 T00850085  RH  100%=      5-min Rain = 0
KAM3 140724Z 20011KT 09/09 A301 RMK A01 T00850085  RH  100%=      5-min Rain = 0
KAM3 140725Z 20011KT 09/09 A301 RMK A01 T00850085  RH  100%=      5-min Rain = 0
KAM3 140726Z 20011KT 09/09 A3009 RMK A01 T00860086  RH  100%=      5-min Rain = 0
KAM3 140727Z 20011KT 09/09 A3009 RMK A01 T00870087  RH  100%=      5-min Rain = 0
KAM3 140728Z 20011KT 09/09 A3009 RMK A01 T00870087  RH  100%=      5-min Rain = 0
KAM3 140729Z 20011KT 09/09 A3009 RMK A01 T00880088  RH  100%=      5-min Rain = 0
KAM3 140730Z 20011KT 09/09 A3009 RMK A01 T00880088  RH  100%=      5-min Rain = 0
KAM3 140731Z 20011KT 09/09 A3009 RMK A01 T00880088  RH  100%=      5-min Rain = 0
KAM3 140732Z 20012KT 09/09 A3009 RMK A01 T00890089  RH  100%=      5-min Rain = 0
KAM3 140733Z 21011KT 09/09 A3009 RMK A01 T00900090  RH  100%=      5-min Rain = 0
KAM3 140734Z 20011KT 09/09 A3009 RMK A01 T00900090  RH  100%=      5-min Rain = 0
KAM3 140735Z 21011KT 09/09 A3009 RMK A01 T00910091  RH  100%=      5-min Rain = 0
KAM3 140736Z 20012KT 09/09 A3009 RMK A01 T00910091  RH  100%=      5-min Rain = 0
KAM3 140737Z 21012KT 09/09 A3009 RMK A01 T00910091  RH  100%=      5-min Rain = 0
KAM3 140738Z 20012KT 09/09 A3009 RMK A01 T00920092  RH  100%=      5-min Rain = 0
KAM3 140739Z 21012KT 09/09 A3009 RMK A01 T00930093  RH  100%=      5-min Rain = 0
KAM3 140740Z 21011KT 09/09 A3009 RMK A01 T00940094  RH  100%=      5-min Rain = 0
KAM3 140741Z 20012KT 09/09 A3009 RMK A01 T00940094  RH  100%=      5-min Rain = 0
KAM3 140742Z 21011KT 10/10 A3009 RMK A01 T00950095  RH  100%=      5-min Rain = 0
KAM3 140743Z 21010KT 10/10 A3009 RMK A01 T00950095  RH  100%=      5-min Rain = 0
KAM3 140744Z 20011KT 10/10 A3009 RMK A01 T00950095  RH  100%=      5-min Rain = 0
KAM3 140745Z 21011KT 10/10 A3009 RMK A01 T00960096  RH  100%=      5-min Rain = 0
KAM3 140746Z 20011KT 10/10 A3009 RMK A01 T00960096  RH  100%=      5-min Rain = 0
KAM3 140747Z 21011KT 10/10 A3009 RMK A01 T00960096  RH  100%=      5-min Rain = 0
KAM3 140748Z 21011KT 10/10 A3009 RMK A01 T00960096  RH  100%=      5-min Rain = 0
KAM3 140749Z 21011KT 10/10 A3009 RMK A01 T00960096  RH  100%=      5-min Rain = 0
KAM3 140750Z 20010KT 10/10 A3009 RMK A01 T00970097  RH  100%=      5-min Rain = 0
KAM3 140751Z 21011KT 10/10 A3009 RMK A01 T00970097  RH  100%=      5-min Rain = 0
KAM3 140752Z 20010KT 10/10 A3009 RMK A01 T00970097  RH  100%=      5-min Rain = 0
KAM3 140753Z 21011KT 10/10 A3009 RMK A01 T00980098  RH  100%=      5-min Rain = 0
KAM3 140754Z 21011KT 10/10 A3009 RMK A01 T00980098  RH  100%=      5-min Rain = 0
KAM3 140755Z 20010KT 10/10 A3008 RMK A01 T00990099  RH  100%=      5-min Rain = 0
KAM3 140756Z 21011KT 10/10 A3008 RMK A01 T00980098  RH  100%=      5-min Rain = 0
KAM3 140757Z 21010KT 10/10 A3008 RMK A01 T00990098  RH  100%=      5-min Rain = 0
KAM3 140758Z 21011KT 10/10 A3008 RMK A01 T00990099  RH  100%=      5-min Rain = 0
KAM3 140759Z 21011KT 10/10 A3008 RMK A01 T01000099  RH  100%=      5-min Rain = 0
KAM3 140800Z 21011KT 10/10 A3008 RMK A01 T00990099  RH  100%=      5-min Rain = 0
KAM3 140801Z 21010KT 10/10 A3008 RMK A01 T01000100  RH  100%=      5-min Rain = 0
KAM3 140802Z 21011KT 10/10 A3008 RMK A01 T01000099  RH  100%=      5-min Rain = 0
KAM3 140803Z 21011KT 10/10 A3008 RMK A01 T00990099  RH  100%=      5-min Rain = 0
KAM3 140804Z 21011KT 10/10 A3008 RMK A01 T00990099  RH  100%=      5-min Rain = 0
KAM3 140805Z 21011KT 10/10 A3008 RMK A01 T00990099  RH  100%=      5-min Rain = 0
KAM3 140806Z 21011KT 10/10 A3008 RMK A01 T01000100  RH  100%=      5-min Rain = 0
KAM3 140807Z 22011KT 10/10 A3008 RMK A01 T01000099  RH  100%=      5-min Rain = 0
KAM3 140808Z 22011KT 10/10 A3008 RMK A01 T01000099  RH  100%=      5-min Rain = 0
KAM3 140809Z 22011KT 10/10 A3008 RMK A01 T01000099  RH  100%=      5-min Rain = 0
KAM3 140810Z 22012KT 10/10 A3008 RMK A01 T01000099  RH  100%=      5-min Rain = 0
KAM3 140811Z 22012KT 10/10 A3008 RMK A01 T00990099  RH  100%=      5-min Rain = 0
KAM3 140812Z 21012KT 10/10 A3008 RMK A01 T00990099  RH  100%=      5-min Rain = 0
KAM3 140813Z 21012KT 10/10 A3008 RMK A01 T00990099  RH  100%=      5-min Rain = 0
KAM3 140814Z 22012KT 10/10 A3008 RMK A01 T00990099  RH  100%=      5-min Rain = 0
KAM3 140815Z 21012KT 10/10 A3008 RMK A01 T01000100  RH  100%=      5-min Rain = 0
KAM3 140816Z 22011KT 10/10 A3008 RMK A01 T01000100  RH  100%=      5-min Rain = 0
KAM3 140817Z 22011KT 10/10 A3008 RMK A01 T00990099  RH  100%=      5-min Rain = 0
KAM3 140818Z 22010KT 10/10 A3008 RMK A01 T00980098  RH  100%=      5-min Rain = 0
KAM3 140819Z 22010KT 10/10 A3008 RMK A01 T00980098  RH  100%=      5-min Rain = 0
KAM3 140820Z 22010KT 10/10 A3008 RMK A01 T00970097  RH  100%=      5-min Rain = 0
KAM3 140821Z 22010KT 10/10 A3008 RMK A01 T00960096  RH  100%=      5-min Rain = 0
KAM3 140822Z 21009KT 10/10 A3008 RMK A01 T00960096  RH  100%=      5-min Rain = 0
KAM3 140823Z 21009KT 10/10 A3008 RMK A01 T00950095  RH  100%=      5-min Rain = 0
KAM3 140824Z 22009KT 09/09 A3008 RMK A01 T00940094  RH  100%=      5-min Rain = 0
KAM3 140825Z 21009KT 09/09 A3008 RMK A01 T00940094  RH  100%=      5-min Rain = 0
KAM3 140826Z 21009KT 09/09 A3008 RMK A01 T00940094  RH  100%=      5-min Rain = 0
KAM3 140827Z 21009KT 09/09 A3008 RMK A01 T00930093  RH  100%=      5-min Rain = 0
KAM3 140828Z 21009KT 09/09 A3008 RMK A01 T00930093  RH  100%=      5-min Rain = 0
KAM3 140829Z 21009KT 09/09 A3008 RMK A01 T00920092  RH  100%=      5-min Rain = 0
KAM3 140830Z 21009KT 09/09 A3008 RMK A01 T00920092  RH  100%=      5-min Rain = 0
KAM3 140831Z 21009KT 09/09 A3007 RMK A01 T00920092  RH  100%=      5-min Rain = 0
KAM3 140832Z 21010KT 09/09 A3007 RMK A01 T00920092  RH  100%=      5-min Rain = 0
KAM3 140833Z 21009KT 09/09 A3007 RMK A01 T00910091  RH  100%=      5-min Rain = 0
KAM3 140834Z 21010KT 09/09 A3007 RMK A01 T00920092  RH  100%=      5-min Rain = 0
KAM3 140835Z 21011KT 09/09 A3007 RMK A01 T00920092  RH  100%=      5-min Rain = 0
KAM3 140836Z 21011KT 09/09 A3007 RMK A01 T00920092  RH  100%=      5-min Rain = 0
KAM3 140837Z 21010KT 09/09 A3007 RMK A01 T00930093  RH  100%=      5-min Rain = 0
KAM3 140838Z 21012KT 09/09 A3007 RMK A01 T00930093  RH  100%=      5-min Rain = 0
KAM3 140839Z 22010KT 09/09 A3007 RMK A01 T00940094  RH  100%=      5-min Rain = 0
KAM3 140840Z 21011KT 10/10 A3007 RMK A01 T00950095  RH  100%=      5-min Rain = 0
KAM3 140841Z 21010KT 10/10 A3007 RMK A01 T00950095  RH  100%=      5-min Rain = 0
KAM3 140842Z 22011KT 10/10 A3007 RMK A01 T00950095  RH  100%=      5-min Rain = 0
KAM3 140843Z 22012KT 10/10 A3007 RMK A01 T00960096  RH  100%=      5-min Rain = 0
KAM3 140844Z 22012KT 10/10 A3007 RMK A01 T00970097  RH  100%=      5-min Rain = 0
KAM3 140845Z 22012KT 10/10 A3007 RMK A01 T00980098  RH  100%=      5-min Rain = 0
KAM3 140846Z 21013KT 10/10 A3007 RMK A01 T00980098  RH  100%=      5-min Rain = 0
KAM3 140847Z 21013KT 10/10 A3007 RMK A01 T00990099  RH  100%=      5-min Rain = 0
KAM3 140848Z 21013KT 10/10 A3007 RMK A01 T00990099  RH  100%=      5-min Rain = 0
KAM3 140849Z 22013KT 10/10 A3007 RMK A01 T00990099  RH  100%=      5-min Rain = 0
KAM3 140850Z 22013KT 10/10 A3007 RMK A01 T00990099  RH  100%=      5-min Rain = 0
KAM3 140851Z 21014KT 10/10 A3006 RMK A01 T00990099  RH  100%=      5-min Rain = 0
KAM3 140852Z 21013KT 10/10 A3006 RMK A01 T01000100  RH  100%=      5-min Rain = 0
KAM3 140853Z 21014KT 10/10 A3006 RMK A01 T01000100  RH  100%=      5-min Rain = 0
KAM3 140854Z 21014KT 10/10 A3006 RMK A01 T01000100  RH  100%=      5-min Rain = 0
KAM3 140855Z 21014KT 10/10 A3006 RMK A01 T01000100  RH  100%=      5-min Rain = 0
KAM3 140856Z 21014KT 10/10 A3006 RMK A01 T01000100  RH  100%=      5-min Rain = 0
KAM3 140857Z 21014KT 10/10 A3006 RMK A01 T01000100  RH  100%=      5-min Rain = 0
KAM3 140858Z 21013KT 10/10 A3006 RMK A01 T00990099  RH  100%=      5-min Rain = 0
KAM3 140859Z 21013KT 10/10 A3006 RMK A01 T00990099  RH  100%=      5-min Rain = 0
KAM3 140900Z 21012KT 10/10 A3006 RMK A01 T00990098  RH  100%=      5-min Rain = 0
KAM3 140901Z 21012KT 10/10 A3006 RMK A01 T00980098  RH  100%=      5-min Rain = 0
KAM3 140902Z 21012KT 10/10 A3006 RMK A01 T00980098  RH  100%=      5-min Rain = 0
KAM3 140903Z 21012KT 10/10 A3006 RMK A01 T00970097  RH  100%=      5-min Rain = 0
KAM3 140904Z 22012KT 10/10 A3006 RMK A01 T00970097  RH  100%=      5-min Rain = 0
KAM3 140905Z 22012KT 10/10 A3006 RMK A01 T00960096  RH  100%=      5-min Rain = 0
KAM3 140906Z 22011KT 10/10 A3006 RMK A01 T00970097  RH  100%=      5-min Rain = 0
KAM3 140907Z 21012KT 10/10 A3006 RMK A01 T00960096  RH  100%=      5-min Rain = 0
KAM3 140908Z 21011KT 10/10 A3006 RMK A01 T00960096  RH  100%=      5-min Rain = 0
KAM3 140909Z 21011KT 10/10 A3006 RMK A01 T00960096  RH  100%=      5-min Rain = 0
KAM3 140910Z 21011KT 10/10 A3006 RMK A01 T00950095  RH  100%=      5-min Rain = 0
KAM3 140911Z 21011KT 10/10 A3006 RMK A01 T00950095  RH  100%=      5-min Rain = 0
KAM3 140912Z 22011KT 10/10 A3006 RMK A01 T00950095  RH  100%=      5-min Rain = 0
KAM3 140913Z 21012KT 09/09 A3006 RMK A01 T00940094  RH  100%=      5-min Rain = 0
KAM3 140914Z 22012KT 09/09 A3006 RMK A01 T00940094  RH  100%=      5-min Rain = 0
KAM3 140915Z 21013KT 09/09 A3006 RMK A01 T00940094  RH  100%=      5-min Rain = 0
KAM3 140916Z 22011KT 09/09 A3006 RMK A01 T00940094  RH  100%=      5-min Rain = 0
KAM3 140917Z 22012KT 09/09 A3006 RMK A01 T00940094  RH  100%=      5-min Rain = 0
KAM3 140918Z 21012KT 09/09 A3006 RMK A01 T00940094  RH  100%=      5-min Rain = 0
KAM3 140919Z 21011KT 09/09 A3006 RMK A01 T00940094  RH  100%=      5-min Rain = 0
KAM3 140920Z 21011KT 09/09 A3006 RMK A01 T00940094  RH  100%=      5-min Rain = 0
KAM3 140921Z 21013KT 09/09 A3006 RMK A01 T00930093  RH  100%=      5-min Rain = 0
KAM3 140922Z 21012KT 09/09 A3006 RMK A01 T00930093  RH  100%=      5-min Rain = 0
KAM3 140923Z 21012KT 09/09 A3006 RMK A01 T00940094  RH  100%=      5-min Rain = 0
KAM3 140924Z 21012KT 09/09 A3006 RMK A01 T00940094  RH  100%=      5-min Rain = 0
KAM3 140925Z 21012KT 09/09 A3006 RMK A01 T00940094  RH  100%=      5-min Rain = 0
KAM3 140926Z 21011KT 09/09 A3006 RMK A01 T00940093  RH  100%=      5-min Rain = 0
KAM3 140927Z 21012KT 09/09 A3006 RMK A01 T00930093  RH  100%=      5-min Rain = 0
KAM3 140928Z 21011KT 09/09 A3006 RMK A01 T00920092  RH  100%=      5-min Rain = 0
KAM3 140929Z 21012KT 09/09 A3005 RMK A01 T00920092  RH  100%=      5-min Rain = 0
KAM3 140930Z 22011KT 09/09 A3006 RMK A01 T00920092  RH  100%=      5-min Rain = 0
KAM3 140931Z 22011KT 09/09 A3006 RMK A01 T00910091  RH  100%=      5-min Rain = 0
KAM3 140932Z 22012KT 09/09 A3006 RMK A01 T00910091  RH  100%=      5-min Rain = 0
KAM3 140933Z 22012KT 09/09 A3006 RMK A01 T00910091  RH  100%=      5-min Rain = 0
KAM3 140934Z 22010KT 09/09 A3006 RMK A01 T00900090  RH  100%=      5-min Rain = 0
KAM3 140935Z 21010KT 09/09 A3006 RMK A01 T00900090  RH  100%=      5-min Rain = 0
KAM3 140936Z 22010KT 09/09 A3006 RMK A01 T00890089  RH  100%=      5-min Rain = 0
KAM3 140937Z 22010KT 09/09 A3006 RMK A01 T00890089  RH  100%=      5-min Rain = 0
KAM3 140938Z 22011KT 09/09 A3006 RMK A01 T00880088  RH  100%=      5-min Rain = 0
KAM3 140939Z 21011KT 09/09 A3006 RMK A01 T00880088  RH  100%=      5-min Rain = 0
KAM3 140940Z 22010KT 09/09 A3006 RMK A01 T00880088  RH  100%=      5-min Rain = 0
KAM3 140941Z 21011KT 09/09 A3006 RMK A01 T00870087  RH  100%=      5-min Rain = 0
KAM3 140942Z 21010KT 09/09 A3006 RMK A01 T00880088  RH  100%=      5-min Rain = 0
KAM3 140943Z 21010KT 09/09 A3006 RMK A01 T00870087  RH  100%=      5-min Rain = 0
KAM3 140944Z 21010KT 09/09 A3006 RMK A01 T00860086  RH  100%=      5-min Rain = 0
KAM3 140945Z 21010KT 09/09 A3006 RMK A01 T00860086  RH  100%=      5-min Rain = 0
KAM3 140946Z 21010KT 09/09 A3006 RMK A01 T00850085  RH  100%=      5-min Rain = 0
KAM3 140947Z 21010KT 09/09 A3006 RMK A01 T00850085  RH  100%=      5-min Rain = 0
KAM3 140948Z 21011KT 09/09 A3006 RMK A01 T00850085  RH  100%=      5-min Rain = 0
KAM3 140949Z 21011KT 09/09 A3006 RMK A01 T00850085  RH  100%=      5-min Rain = 0
KAM3 140950Z 21010KT 08/08 A3006 RMK A01 T00840084  RH  100%=      5-min Rain = 0
KAM3 140951Z 20011KT 08/08 A3005 RMK A01 T00840084  RH  100%=      5-min Rain = 0
KAM3 140952Z 21011KT 08/08 A3005 RMK A01 T00840084  RH  100%=      5-min Rain = 0
KAM3 140953Z 21011KT 08/08 A3005 RMK A01 T00840084  RH  100%=      5-min Rain = 0
KAM3 140954Z 21010KT 08/08 A3005 RMK A01 T00830083  RH  100%=      5-min Rain = 0
KAM3 140955Z 21011KT 08/08 A3005 RMK A01 T00830083  RH  100%=      5-min Rain = 0
KAM3 140956Z 21011KT 08/08 A3005 RMK A01 T00830083  RH  100%=      5-min Rain = 0
KAM3 140957Z 21011KT 08/08 A3005 RMK A01 T00830083  RH  100%=      5-min Rain = 0
KAM3 140958Z 20012KT 08/08 A3005 RMK A01 T00820082  RH  100%=      5-min Rain = 0
KAM3 140959Z 20011KT 08/08 A3005 RMK A01 T00820082  RH  100%=      5-min Rain = 0
KAM3 141000Z 20011KT 08/08 A3005 RMK A01 T00820082  RH  100%=      5-min Rain = 0
KAM3 141001Z 20012KT 08/08 A3005 RMK A01 T00820082  RH  100%=      5-min Rain = 0
KAM3 141002Z 20011KT 08/08 A3005 RMK A01 T00820082  RH  100%=      5-min Rain = 0
KAM3 141003Z 20011KT 08/08 A3005 RMK A01 T00820082  RH  100%=      5-min Rain = 0
KAM3 141004Z 20011KT 08/08 A3005 RMK A01 T00810081  RH  100%=      5-min Rain = 0
KAM3 141005Z 20012KT 08/08 A3005 RMK A01 T00810081  RH  100%=      5-min Rain = 0
KAM3 141006Z 20011KT 08/08 A3005 RMK A01 T00810081  RH  100%=      5-min Rain = 0
KAM3 141007Z 20011KT 08/08 A3005 RMK A01 T00810081  RH  100%=      5-min Rain = 0
KAM3 141008Z 20011KT 08/08 A3005 RMK A01 T00810081  RH  100%=      5-min Rain = 0
KAM3 141009Z 20011KT 08/08 A3005 RMK A01 T00810081  RH  100%=      5-min Rain = 0
KAM3 141010Z 19011KT 08/08 A3005 RMK A01 T00810081  RH  100%=      5-min Rain = 0
KAM3 141011Z 19010KT 08/08 A3005 RMK A01 T00810081  RH  100%=      5-min Rain = 0
KAM3 141012Z 19010KT 08/08 A3005 RMK A01 T00810081  RH  100%=      5-min Rain = 0
KAM3 141013Z 19011KT 08/08 A3005 RMK A01 T00810081  RH  100%=      5-min Rain = 0
KAM3 141014Z 19012KT 08/08 A3005 RMK A01 T00810081  RH  100%=      5-min Rain = 0
KAM3 141015Z 19011KT 08/08 A3005 RMK A01 T00810081  RH  100%=      5-min Rain = 0
KAM3 141016Z 20012KT 08/08 A3005 RMK A01 T00810081  RH  100%=      5-min Rain = 0
KAM3 141017Z 20011KT 08/08 A3005 RMK A01 T00810081  RH  100%=      5-min Rain = 0
KAM3 141018Z 20011KT 08/08 A3005 RMK A01 T00810081  RH  100%=      5-min Rain = 0
KAM3 141019Z 20011KT 08/08 A3005 RMK A01 T00800080  RH  100%=      5-min Rain = 0
KAM3 141020Z 20011KT 08/08 A3005 RMK A01 T00800080  RH  100%=      5-min Rain = 0
KAM3 141021Z 20011KT 08/08 A3004 RMK A01 T00800080  RH  100%=      5-min Rain = 0
KAM3 141022Z 20011KT 08/08 A3004 RMK A01 T00800080  RH  100%=      5-min Rain = 0
KAM3 141023Z 20012KT 08/08 A3004 RMK A01 T00790079  RH  100%=      5-min Rain = 0
KAM3 141024Z 20011KT 08/08 A3004 RMK A01 T00790079  RH  100%=      5-min Rain = 0
KAM3 141025Z 20012KT 08/08 A3004 RMK A01 T00790079  RH  100%=      5-min Rain = 0
KAM3 141026Z 20012KT 08/08 A3004 RMK A01 T00790079  RH  100%=      5-min Rain = 0
KAM3 141027Z 19011KT 08/08 A3004 RMK A01 T00790079  RH  100%=      5-min Rain = 0
KAM3 141028Z 19011KT 08/08 A3004 RMK A01 T00790079  RH  100%=      5-min Rain = 0
KAM3 141029Z 19012KT 08/08 A3004 RMK A01 T00790079  RH  100%=      5-min Rain = 0
KAM3 141030Z 19012KT 08/08 A3004 RMK A01 T00790079  RH  100%=      5-min Rain = 0
KAM3 141031Z 19011KT 08/08 A3004 RMK A01 T00790079  RH  100%=      5-min Rain = 0
KAM3 141032Z 19011KT 08/08 A3004 RMK A01 T00780078  RH  100%=      5-min Rain = 0
KAM3 141033Z 19012KT 08/08 A3004 RMK A01 T00780078  RH  100%=      5-min Rain = 0
KAM3 141034Z 19011KT 08/08 A3004 RMK A01 T00780079  RH  100%=      5-min Rain = 0
KAM3 141035Z 19012KT 08/08 A3004 RMK A01 T00780078  RH  100%=      5-min Rain = 0
KAM3 141036Z 19011KT 08/08 A3004 RMK A01 T00780078  RH  100%=      5-min Rain = 0
KAM3 141037Z 19011KT 08/08 A3004 RMK A01 T00780078  RH  100%=      5-min Rain = 0
KAM3 141038Z 20011KT 08/08 A3004 RMK A01 T00790079  RH  100%=      5-min Rain = 0
KAM3 141039Z 19011KT 08/08 A3004 RMK A01 T00790079  RH  100%=      5-min Rain = 0
KAM3 141040Z 19011KT 08/08 A3004 RMK A01 T00790079  RH  100%=      5-min Rain = 0
KAM3 141041Z 19011KT 08/08 A3004 RMK A01 T00790079  RH  100%=      5-min Rain = 0
KAM3 141042Z 19010KT 08/08 A3004 RMK A01 T00790079  RH  100%=      5-min Rain = 0
KAM3 141043Z 19011KT 08/08 A3004 RMK A01 T00790079  RH  100%=      5-min Rain = 0
KAM3 141044Z 19011KT 08/08 A3004 RMK A01 T00790079  RH  100%=      5-min Rain = 0
KAM3 141045Z 19010KT 08/08 A3004 RMK A01 T00780078  RH  100%=      5-min Rain = 0
KAM3 141046Z 19011KT 08/08 A3004 RMK A01 T00780078  RH  100%=      5-min Rain = 0
KAM3 141047Z 19010KT 08/08 A3004 RMK A01 T00780078  RH  100%=      5-min Rain = 0
KAM3 141048Z 19010KT 08/08 A3004 RMK A01 T00780078  RH  100%=      5-min Rain = 0
KAM3 141049Z 19008KT 08/08 A3004 RMK A01 T00780078  RH  100%=      5-min Rain = 0
KAM3 141050Z 19010KT 08/08 A3004 RMK A01 T00780078  RH  100%=      5-min Rain = 0
KAM3 141051Z 19010KT 08/08 A3004 RMK A01 T00780078  RH  100%=      5-min Rain = 0
KAM3 141052Z 18009KT 08/08 A3004 RMK A01 T00780079  RH  100%=      5-min Rain = 0
KAM3 141053Z 18009KT 08/08 A3004 RMK A01 T00780078  RH  100%=      5-min Rain = 0
KAM3 141054Z 18010KT 08/08 A3004 RMK A01 T00780079  RH  100%=      5-min Rain = 0
KAM3 141055Z 18009KT 08/08 A3004 RMK A01 T00790079  RH  100%=      5-min Rain = 0
KAM3 141056Z 18010KT 08/08 A3004 RMK A01 T00790079  RH  100%=      5-min Rain = 0
KAM3 141057Z 18010KT 08/08 A3004 RMK A01 T00790079  RH  100%=      5-min Rain = 0
KAM3 141058Z 18009KT 08/08 A3004 RMK A01 T00780078  RH  100%=      5-min Rain = 0
KAM3 141059Z 18009KT 08/08 A3004 RMK A01 T00780078  RH  100%=      5-min Rain = 0
KAM3 141100Z 18009KT 08/08 A3004 RMK A01 T00780078  RH  100%=      5-min Rain = 0
KAM3 141101Z 18009KT 08/08 A3004 RMK A01 T00790079  RH  100%=      5-min Rain = 0
KAM3 141102Z 18009KT 08/08 A3004 RMK A01 T00780078  RH  100%=      5-min Rain = 0
KAM3 141103Z 18009KT 08/08 A3004 RMK A01 T00780078  RH  100%=      5-min Rain = 0
KAM3 141104Z 18009KT 08/08 A3004 RMK A01 T00780078  RH  100%=      5-min Rain = 0
KAM3 141105Z 18009KT 08/08 A3004 RMK A01 T00770077  RH  100%=      5-min Rain = 0
KAM3 141106Z 18009KT 08/08 A3004 RMK A01 T00760076  RH  100%=      5-min Rain = 0
KAM3 141107Z 18010KT 08/08 A3004 RMK A01 T00760076  RH  100%=      5-min Rain = 0
KAM3 141108Z 18010KT 08/08 A3004 RMK A01 T00760076  RH  100%=      5-min Rain = 0
KAM3 141109Z 18009KT 08/08 A3004 RMK A01 T00760076  RH  100%=      5-min Rain = 0
KAM3 141110Z 18009KT 08/08 A3004 RMK A01 T00760076  RH  100%=      5-min Rain = 0
KAM3 141111Z 18010KT 08/08 A3004 RMK A01 T00750075  RH  100%=      5-min Rain = 0
KAM3 141112Z 18010KT 08/08 A3004 RMK A01 T00750075  RH  100%=      5-min Rain = 0
KAM3 141113Z 18010KT 08/08 A3004 RMK A01 T00750075  RH  100%=      5-min Rain = 0
KAM3 141114Z 18010KT 08/08 A3004 RMK A01 T00750075  RH  100%=      5-min Rain = 0
KAM3 141115Z 18009KT 08/08 A3004 RMK A01 T00750075  RH  100%=      5-min Rain = 0
KAM3 141116Z 18009KT 08/08 A3004 RMK A01 T00750075  RH  100%=      5-min Rain = 0
KAM3 141117Z 18009KT 08/08 A3004 RMK A01 T00750075  RH  100%=      5-min Rain = 0
KAM3 141118Z 18009KT 08/08 A3004 RMK A01 T00750075  RH  100%=      5-min Rain = 0
KAM3 141119Z 18009KT 08/08 A3004 RMK A01 T00750075  RH  100%=      5-min Rain = 0
KAM3 141120Z 18009KT 08/08 A3004 RMK A01 T00750075  RH  100%=      5-min Rain = 0
KAM3 141121Z 18009KT 08/08 A3004 RMK A01 T00750075  RH  100%=      5-min Rain = 0
KAM3 141122Z 18009KT 07/07 A3004 RMK A01 T00740074  RH  100%=      5-min Rain = 0
KAM3 141123Z 18009KT 07/07 A3004 RMK A01 T00740074  RH  100%=      5-min Rain = 0
KAM3 141124Z 18010KT 07/07 A3004 RMK A01 T00740074  RH  100%=      5-min Rain = 0
KAM3 141125Z 18009KT 07/07 A3004 RMK A01 T00740074  RH  100%=      5-min Rain = 0
KAM3 141126Z 18009KT 07/07 A3004 RMK A01 T00730073  RH  100%=      5-min Rain = 0
KAM3 141127Z 18010KT 07/07 A3004 RMK A01 T00730073  RH  100%=      5-min Rain = 0
KAM3 141128Z 18010KT 07/07 A3004 RMK A01 T00730073  RH  100%=      5-min Rain = 0
KAM3 141129Z 19009KT 07/07 A3004 RMK A01 T00730073  RH  100%=      5-min Rain = 0
KAM3 141130Z 18010KT 07/07 A3004 RMK A01 T00740074  RH  100%=      5-min Rain = 0
KAM3 141131Z 18010KT 07/07 A3004 RMK A01 T00740074  RH  100%=      5-min Rain = 0
KAM3 141132Z 18009KT 07/07 A3004 RMK A01 T00740074  RH  100%=      5-min Rain = 0
KAM3 141133Z 18009KT 07/07 A3004 RMK A01 T00740074  RH  100%=      5-min Rain = 0
KAM3 141134Z 18009KT 07/07 A3004 RMK A01 T00740074  RH  100%=      5-min Rain = 0
KAM3 141135Z 18009KT 07/07 A3004 RMK A01 T00740074  RH  100%=      5-min Rain = 0
KAM3 141136Z 18009KT 07/07 A3004 RMK A01 T00730073  RH  100%=      5-min Rain = 0
KAM3 141137Z 18009KT 07/07 A3004 RMK A01 T00730073  RH  100%=      5-min Rain = 0
KAM3 141138Z 18009KT 07/07 A3004 RMK A01 T00730073  RH  100%=      5-min Rain = 0
KAM3 141139Z 18009KT 07/07 A3004 RMK A01 T00730073  RH  100%=      5-min Rain = 0
KAM3 141140Z 18009KT 07/07 A3004 RMK A01 T00730073  RH  100%=      5-min Rain = 0
KAM3 141141Z 18009KT 07/07 A3004 RMK A01 T00730073  RH  100%=      5-min Rain = 0
KAM3 141142Z 18009KT 07/07 A3004 RMK A01 T00730073  RH  100%=      5-min Rain = 0
KAM3 141143Z 18009KT 07/07 A3004 RMK A01 T00730073  RH  100%=      5-min Rain = 0
KAM3 141144Z 19009KT 07/07 A3004 RMK A01 T00730073  RH  100%=      5-min Rain = 0
KAM3 141145Z 19009KT 07/07 A3004 RMK A01 T00730073  RH  100%=      5-min Rain = 0
KAM3 141146Z 18009KT 07/07 A3004 RMK A01 T00730073  RH  100%=      5-min Rain = 0
KAM3 141147Z 18009KT 07/07 A3004 RMK A01 T00730073  RH  100%=      5-min Rain = 0
KAM3 141148Z 18008KT 07/07 A3004 RMK A01 T00730073  RH  100%=      5-min Rain = 0
KAM3 141149Z 18009KT 07/07 A3003 RMK A01 T00720072  RH  100%=      5-min Rain = 0
KAM3 141150Z 18009KT 07/07 A3003 RMK A01 T00710071  RH  100%=      5-min Rain = 0
KAM3 141151Z 18009KT 07/07 A3003 RMK A01 T00700070  RH  100%=      5-min Rain = 0
KAM3 141152Z 19010KT 07/07 A3003 RMK A01 T00700070  RH  100%=      5-min Rain = 0
KAM3 141153Z 19009KT 07/07 A3003 RMK A01 T00700070  RH  100%=      5-min Rain = 0
KAM3 141154Z 19009KT 07/07 A3003 RMK A01 T00700070  RH  100%=      5-min Rain = 0
KAM3 141155Z 19009KT 07/07 A3003 RMK A01 T00710071  RH  100%=      5-min Rain = 0
KAM3 141156Z 19008KT 07/07 A3003 RMK A01 T00710071  RH  100%=      5-min Rain = 0
KAM3 141157Z 19009KT 07/07 A3003 RMK A01 T00720072  RH  100%=      5-min Rain = 0
KAM3 141158Z 19009KT 07/07 A3003 RMK A01 T00720072  RH  100%=      5-min Rain = 0
KAM3 141159Z 19009KT 07/07 A3003 RMK A01 T00720072  RH  100%=      5-min Rain = 0
KAM3 141200Z 19009KT 07/07 A3003 RMK A01 T00730073  RH  100%=      5-min Rain = 0
KAM3 141201Z 19009KT 07/07 A3003 RMK A01 T00740074  RH  100%=      5-min Rain = 0
KAM3 141202Z 19009KT 07/07 A3004 RMK A01 T00740074  RH  100%=      5-min Rain = 0
KAM3 141203Z 19009KT 08/08 A3003 RMK A01 T00750075  RH  100%=      5-min Rain = 0
KAM3 141204Z 19009KT 08/08 A3003 RMK A01 T00750075  RH  100%=      5-min Rain = 0
KAM3 141205Z 19008KT 08/08 A3003 RMK A01 T00750075  RH  100%=      5-min Rain = 0
KAM3 141206Z 19009KT 08/08 A3003 RMK A01 T00760076  RH  100%=      5-min Rain = 0
KAM3 141207Z 19009KT 08/08 A3003 RMK A01 T00760076  RH  100%=      5-min Rain = 0
KAM3 141208Z 19009KT 08/08 A3003 RMK A01 T00760076  RH  100%=      5-min Rain = 0
KAM3 141209Z 19009KT 08/08 A3003 RMK A01 T00760076  RH  100%=      5-min Rain = 0
KAM3 141210Z 19009KT 08/08 A3003 RMK A01 T00770077  RH  100%=      5-min Rain = 0
KAM3 141211Z 19010KT 08/08 A3003 RMK A01 T00770077  RH  100%=      5-min Rain = 0
KAM3 141212Z 19009KT 08/08 A3003 RMK A01 T00770077  RH  100%=      5-min Rain = 0
KAM3 141213Z 19009KT 08/08 A3003 RMK A01 T00780078  RH  100%=      5-min Rain = 0
KAM3 141214Z 19009KT 08/08 A3003 RMK A01 T00780078  RH  100%=      5-min Rain = 0
KAM3 141215Z 19009KT 08/08 A3003 RMK A01 T00780078  RH  100%=      5-min Rain = 0
KAM3 141216Z 19009KT 08/08 A3003 RMK A01 T00780078  RH  100%=      5-min Rain = 0
KAM3 141217Z 19009KT 08/08 A3003 RMK A01 T00780079  RH  100%=      5-min Rain = 0
KAM3 141218Z 19009KT 08/08 A3003 RMK A01 T00790079  RH  100%=      5-min Rain = 0
KAM3 141219Z 19009KT 08/08 A3003 RMK A01 T00790079  RH  100%=      5-min Rain = 0
KAM3 141220Z 19008KT 08/08 A3003 RMK A01 T00790079  RH  100%=      5-min Rain = 0
KAM3 141221Z 19008KT 08/08 A3003 RMK A01 T00790079  RH  100%=      5-min Rain = 0
KAM3 141222Z 19008KT 08/08 A3003 RMK A01 T00780078  RH  100%=      5-min Rain = 0
KAM3 141223Z 19008KT 08/08 A3003 RMK A01 T00770077  RH  100%=      5-min Rain = 0
KAM3 141224Z 19008KT 08/08 A3003 RMK A01 T00770077  RH  100%=      5-min Rain = 0
KAM3 141225Z 19009KT 08/08 A3003 RMK A01 T00770077  RH  100%=      5-min Rain = 0
KAM3 141226Z 19009KT 08/08 A3003 RMK A01 T00760076  RH  100%=      5-min Rain = 0
KAM3 141227Z 19009KT 08/08 A3003 RMK A01 T00770077  RH  100%=      5-min Rain = 0
KAM3 141228Z 19009KT 08/08 A3003 RMK A01 T00770077  RH  100%=      5-min Rain = 0
KAM3 141229Z 19009KT 08/08 A3003 RMK A01 T00770077  RH  100%=      5-min Rain = 0
KAM3 141230Z 19009KT 08/08 A3003 RMK A01 T00770077  RH  100%=      5-min Rain = 0
KAM3 141231Z 19008KT 08/08 A3003 RMK A01 T00770077  RH  100%=      5-min Rain = 0
KAM3 141232Z 19008KT 08/08 A3003 RMK A01 T00770077  RH  100%=      5-min Rain = 0
KAM3 141233Z 18008KT 08/08 A3003 RMK A01 T00770077  RH  100%=      5-min Rain = 0
KAM3 141234Z 19009KT 08/08 A3003 RMK A01 T00770077  RH  100%=      5-min Rain = 0
KAM3 141235Z 19008KT 08/08 A3003 RMK A01 T00760076  RH  100%=      5-min Rain = 0
KAM3 141236Z 19008KT 08/08 A3003 RMK A01 T00760076  RH  100%=      5-min Rain = 0
KAM3 141237Z 19008KT 08/08 A3003 RMK A01 T00760076  RH  100%=      5-min Rain = 0
KAM3 141238Z 19008KT 08/08 A3003 RMK A01 T00760076  RH  100%=      5-min Rain = 0
KAM3 141239Z 18008KT 08/08 A3003 RMK A01 T00760076  RH  100%=      5-min Rain = 0
KAM3 141240Z 19008KT 08/08 A3003 RMK A01 T00760076  RH  100%=      5-min Rain = 0
KAM3 141241Z 18007KT 08/08 A3003 RMK A01 T00760076  RH  100%=      5-min Rain = 0
KAM3 141242Z 19007KT 08/08 A3003 RMK A01 T00760076  RH  100%=      5-min Rain = 0
KAM3 141243Z 18008KT 08/08 A3003 RMK A01 T00750075  RH  100%=      5-min Rain = 0
KAM3 141244Z 18008KT 08/08 A3003 RMK A01 T00750075  RH  100%=      5-min Rain = 0
KAM3 141245Z 18009KT 08/08 A3003 RMK A01 T00750075  RH  100%=      5-min Rain = 0
KAM3 141246Z 18008KT 08/08 A3003 RMK A01 T00750075  RH  100%=      5-min Rain = 0
KAM3 141247Z 19009KT 08/08 A3003 RMK A01 T00750075  RH  100%=      5-min Rain = 0
KAM3 141248Z 19008KT 07/07 A3003 RMK A01 T00740074  RH  100%=      5-min Rain = 0
KAM3 141249Z 18009KT 07/07 A3003 RMK A01 T00740074  RH  100%=      5-min Rain = 0
KAM3 141250Z 18009KT 07/07 A3003 RMK A01 T00740074  RH  100%=      5-min Rain = 0
KAM3 141251Z 18008KT 07/07 A3003 RMK A01 T00740074  RH  100%=      5-min Rain = 0
KAM3 141252Z 18008KT 07/07 A3003 RMK A01 T00740074  RH  100%=      5-min Rain = 0
KAM3 141253Z 18009KT 07/07 A3003 RMK A01 T00740074  RH  100%=      5-min Rain = 0
KAM3 141254Z 18009KT 07/07 A3003 RMK A01 T00740074  RH  100%=      5-min Rain = 0
KAM3 141255Z 18009KT 07/07 A3003 RMK A01 T00740074  RH  100%=      5-min Rain = 0
KAM3 141256Z 18009KT 07/07 A3003 RMK A01 T00740074  RH  100%=      5-min Rain = 0
KAM3 141257Z 18009KT 07/07 A3003 RMK A01 T00740074  RH  100%=      5-min Rain = 0
KAM3 141258Z 18009KT 07/07 A3003 RMK A01 T00730073  RH  100%=      5-min Rain = 0
KAM3 141259Z 18009KT 07/07 A3003 RMK A01 T00730073  RH  100%=      5-min Rain = 0
KAM3 141300Z 18009KT 07/07 A3003 RMK A01 T00730073  RH  100%=      5-min Rain = 0
KAM3 141301Z 18009KT 07/07 A3003 RMK A01 T00720072  RH  100%=      5-min Rain = 0
KAM3 141302Z 18009KT 07/07 A3003 RMK A01 T00710071  RH  100%=      5-min Rain = 0
KAM3 141303Z 18008KT 07/07 A3003 RMK A01 T00720072  RH  100%=      5-min Rain = 0
KAM3 141304Z 18009KT 07/07 A3003 RMK A01 T00710071  RH  100%=      5-min Rain = 0
KAM3 141305Z 18008KT 07/07 A3003 RMK A01 T00710071  RH  100%=      5-min Rain = 0
KAM3 141306Z 18009KT 07/07 A3003 RMK A01 T00710071  RH  100%=      5-min Rain = 0
KAM3 141307Z 18008KT 07/07 A3003 RMK A01 T00710071  RH  100%=      5-min Rain = 0
KAM3 141308Z 18008KT 07/07 A3003 RMK A01 T00710071  RH  100%=      5-min Rain = 0
KAM3 141309Z 18008KT 07/07 A3003 RMK A01 T00710071  RH  100%=      5-min Rain = 0
KAM3 141310Z 18008KT 07/07 A3003 RMK A01 T00710071  RH  100%=      5-min Rain = 0
KAM3 141311Z 18008KT 07/07 A3003 RMK A01 T00720072  RH  100%=      5-min Rain = 0
KAM3 141312Z 18008KT 07/07 A3003 RMK A01 T00710071  RH  100%=      5-min Rain = 0
KAM3 141313Z 18008KT 07/07 A3003 RMK A01 T00720072  RH  100%=      5-min Rain = 0
KAM3 141314Z 18008KT 07/07 A3004 RMK A01 T00710071  RH  100%=      5-min Rain = 0
KAM3 141315Z 18009KT 07/07 A3004 RMK A01 T00710071  RH  100%=      5-min Rain = 0
KAM3 141316Z 18009KT 07/07 A3004 RMK A01 T00710071  RH  100%=      5-min Rain = 0
KAM3 141317Z 18009KT 07/07 A3004 RMK A01 T00710071  RH  100%=      5-min Rain = 0
KAM3 141318Z 18010KT 07/07 A3004 RMK A01 T00710071  RH  100%=      5-min Rain = 0
KAM3 141319Z 18009KT 07/07 A3004 RMK A01 T00710071  RH  100%=      5-min Rain = 0
KAM3 141320Z 18009KT 07/07 A3004 RMK A01 T00710071  RH  100%=      5-min Rain = 0
KAM3 141321Z 18009KT 07/07 A3004 RMK A01 T00700070  RH  100%=      5-min Rain = 0
KAM3 141322Z 18009KT 07/07 A3004 RMK A01 T00700070  RH  100%=      5-min Rain = 0
KAM3 141323Z 18009KT 07/07 A3004 RMK A01 T00700070  RH  100%=      5-min Rain = 0
KAM3 141324Z 18009KT 07/07 A3003 RMK A01 T00690069  RH  100%=      5-min Rain = 0
KAM3 141325Z 18009KT 07/07 A3003 RMK A01 T00690069  RH  100%=      5-min Rain = 0
KAM3 141326Z 18009KT 07/07 A3003 RMK A01 T00690069  RH  100%=      5-min Rain = 0
KAM3 141327Z 18009KT 07/07 A3003 RMK A01 T00690069  RH  100%=      5-min Rain = 0
KAM3 141328Z 18010KT 07/07 A3003 RMK A01 T00690069  RH  100%=      5-min Rain = 0
KAM3 141329Z 18010KT 07/07 A3003 RMK A01 T00690069  RH  100%=      5-min Rain = 0
KAM3 141330Z 18011KT 07/07 A3003 RMK A01 T00690069  RH  100%=      5-min Rain = 0
KAM3 141331Z 18010KT 07/07 A3003 RMK A01 T00700070  RH  100%=      5-min Rain = 0
KAM3 141332Z 18009KT 07/07 A3004 RMK A01 T00710071  RH  100%=      5-min Rain = 0
KAM3 141333Z 18010KT 07/07 A3004 RMK A01 T00720072  RH  100%=      5-min Rain = 0
KAM3 141334Z 18009KT 07/07 A3004 RMK A01 T00720072  RH  100%=      5-min Rain = 0
KAM3 141335Z 18009KT 07/07 A3004 RMK A01 T00720072  RH  100%=      5-min Rain = 0
KAM3 141336Z 17009KT 07/07 A3004 RMK A01 T00720072  RH  100%=      5-min Rain = 0
KAM3 141337Z 17009KT 07/07 A3004 RMK A01 T00720072  RH  100%=      5-min Rain = 0
KAM3 141338Z 18009KT 07/07 A3004 RMK A01 T00720072  RH  100%=      5-min Rain = 0
KAM3 141339Z 18009KT 07/07 A3004 RMK A01 T00720072  RH  100%=      5-min Rain = 0
KAM3 141340Z 18008KT 07/07 A3004 RMK A01 T00720072  RH  100%=      5-min Rain = 0
KAM3 141341Z 18008KT 07/07 A3004 RMK A01 T00720072  RH  100%=      5-min Rain = 0
KAM3 141342Z 18008KT 07/07 A3004 RMK A01 T00720072  RH  100%=      5-min Rain = 0
KAM3 141343Z 18008KT 07/07 A3004 RMK A01 T00720072  RH  100%=      5-min Rain = 0
KAM3 141344Z 18008KT 07/07 A3004 RMK A01 T00710071  RH  100%=      5-min Rain = 0
KAM3 141345Z 18008KT 07/07 A3004 RMK A01 T00710071  RH  100%=      5-min Rain = 0
KAM3 141346Z 18008KT 07/07 A3004 RMK A01 T00700070  RH  100%=      5-min Rain = 0
KAM3 141347Z 17008KT 07/07 A3004 RMK A01 T00710071  RH  100%=      5-min Rain = 0
KAM3 141348Z 17009KT 07/07 A3004 RMK A01 T00700070  RH  100%=      5-min Rain = 0
KAM3 141349Z 17009KT 07/07 A3004 RMK A01 T00700070  RH  100%=      5-min Rain = 0
KAM3 141350Z 17008KT 07/07 A3004 RMK A01 T00710071  RH  100%=      5-min Rain = 0
KAM3 141351Z 17008KT 07/07 A3004 RMK A01 T00710071  RH  100%=      5-min Rain = 0
KAM3 141352Z 17008KT 07/07 A3004 RMK A01 T00710071  RH  100%=      5-min Rain = 0
KAM3 141353Z 17008KT 07/07 A3004 RMK A01 T00720072  RH  100%=      5-min Rain = 0
KAM3 141354Z 17008KT 07/07 A3004 RMK A01 T00720072  RH  100%=      5-min Rain = 0
KAM3 141355Z 17008KT 07/07 A3004 RMK A01 T00730073  RH  100%=      5-min Rain = 0
KAM3 141356Z 17008KT 07/07 A3004 RMK A01 T00720072  RH  100%=      5-min Rain = 0
KAM3 141357Z 17008KT 07/07 A3004 RMK A01 T00720072  RH  100%=      5-min Rain = 0
KAM3 141358Z 17008KT 07/07 A3004 RMK A01 T00720072  RH  100%=      5-min Rain = 0
KAM3 141359Z 17008KT 07/07 A3004 RMK A01 T00720072  RH  100%=      5-min Rain = 0
KAM3 141400Z 17009KT 07/07 A3004 RMK A01 T00720072  RH  100%=      5-min Rain = 0
KAM3 141401Z 18008KT 07/07 A3004 RMK A01 T00720072  RH  100%=      5-min Rain = 0
KAM3 141402Z 18009KT 07/07 A3004 RMK A01 T00730073  RH  100%=      5-min Rain = 0
KAM3 141403Z 18009KT 07/07 A3004 RMK A01 T00730073  RH  100%=      5-min Rain = 0
KAM3 141404Z 18009KT 07/07 A3004 RMK A01 T00740074  RH  100%=      5-min Rain = 0
KAM3 141405Z 18009KT 08/08 A3004 RMK A01 T00750075  RH  100%=      5-min Rain = 0
KAM3 141406Z 18008KT 08/08 A3004 RMK A01 T00750075  RH  100%=      5-min Rain = 0
KAM3 141407Z 18008KT 08/08 A3004 RMK A01 T00760076  RH  100%=      5-min Rain = 0
KAM3 141408Z 18008KT 08/08 A3004 RMK A01 T00760076  RH  100%=      5-min Rain = 0
KAM3 141409Z 19008KT 08/08 A3004 RMK A01 T00770077  RH  100%=      5-min Rain = 0
KAM3 141410Z 18008KT 08/08 A3004 RMK A01 T00780078  RH  100%=      5-min Rain = 0
KAM3 141411Z 18009KT 08/08 A3004 RMK A01 T00780078  RH  100%=      5-min Rain = 0
KAM3 141412Z 18009KT 08/08 A3004 RMK A01 T00800080  RH  100%=      5-min Rain = 0
KAM3 141413Z 18008KT 08/08 A3004 RMK A01 T00810081  RH  100%=      5-min Rain = 0
KAM3 141414Z 18008KT 08/08 A3004 RMK A01 T00810081  RH  100%=      5-min Rain = 0
KAM3 141415Z 18008KT 08/08 A3004 RMK A01 T00820082  RH  100%=      5-min Rain = 0
KAM3 141416Z 18009KT 08/08 A3004 RMK A01 T00820082  RH  100%=      5-min Rain = 0
KAM3 141417Z 18008KT 08/08 A3004 RMK A01 T00840084  RH  100%=      5-min Rain = 0
KAM3 141418Z 18008KT 08/08 A3004 RMK A01 T00840084  RH  100%=      5-min Rain = 0
KAM3 141419Z 18008KT 09/09 A3004 RMK A01 T00850085  RH  100%=      5-min Rain = 0
KAM3 141420Z 18007KT 09/09 A3004 RMK A01 T00860086  RH  100%=      5-min Rain = 0
KAM3 141421Z 17006KT 09/09 A3004 RMK A01 T00860086  RH  100%=      5-min Rain = 0
KAM3 141422Z 17006KT 09/09 A3004 RMK A01 T00870087  RH  100%=      5-min Rain = 0
KAM3 141423Z 17006KT 09/09 A3004 RMK A01 T00880088  RH  100%=      5-min Rain = 0
KAM3 141424Z 17006KT 09/09 A3004 RMK A01 T00870088  RH  100%=      5-min Rain = 0
KAM3 141425Z 17005KT 09/09 A3004 RMK A01 T00880088  RH  100%=      5-min Rain = 0
KAM3 141426Z 17006KT 09/09 A3005 RMK A01 T00880088  RH  100%=      5-min Rain = 0
KAM3 141427Z 17007KT 09/09 A3004 RMK A01 T00890089  RH  100%=      5-min Rain = 0
KAM3 141428Z 17007KT 09/09 A3004 RMK A01 T00890089  RH  100%=      5-min Rain = 0
KAM3 141429Z 18007KT 09/09 A3004 RMK A01 T00890089  RH  100%=      5-min Rain = 0
KAM3 141430Z 18008KT 09/09 A3004 RMK A01 T00900090  RH  100%=      5-min Rain = 0
KAM3 141431Z 18007KT 09/09 A3004 RMK A01 T00910091  RH  100%=      5-min Rain = 0
KAM3 141432Z 18008KT 09/09 A3004 RMK A01 T00910091  RH  100%=      5-min Rain = 0
KAM3 141433Z 18008KT 09/09 A3004 RMK A01 T00920092  RH  100%=      5-min Rain = 0
KAM3 141434Z 18007KT 09/09 A3004 RMK A01 T00920092  RH  100%=      5-min Rain = 0
KAM3 141435Z 18008KT 09/09 A3004 RMK A01 T00920092  RH  100%=      5-min Rain = 0
KAM3 141436Z 18008KT 09/09 A3004 RMK A01 T00930093  RH  100%=      5-min Rain = 0
KAM3 141437Z 17007KT 09/09 A3004 RMK A01 T00940094  RH  100%=      5-min Rain = 0
KAM3 141438Z 18008KT 09/09 A3004 RMK A01 T00940094  RH  100%=      5-min Rain = 0
KAM3 141439Z 18009KT 10/09 A3004 RMK A01 T00950094  RH  100%=      5-min Rain = 0
KAM3 141440Z 18008KT 10/09 A3004 RMK A01 T00950094  RH  099%=      5-min Rain = 0
KAM3 141441Z 18007KT 10/09 A3004 RMK A01 T00950094  RH  099%=      5-min Rain = 0
KAM3 141442Z 18007KT 10/10 A3004 RMK A01 T00960095  RH  100%=      5-min Rain = 0
KAM3 141443Z 18008KT 10/10 A3004 RMK A01 T00970097  RH  100%=      5-min Rain = 0
KAM3 141444Z 18007KT 10/10 A3004 RMK A01 T00970096  RH  099%=      5-min Rain = 0
KAM3 141445Z 18007KT 10/10 A3004 RMK A01 T00970096  RH  099%=      5-min Rain = 0
KAM3 141446Z 18007KT 10/10 A3004 RMK A01 T00980097  RH  099%=      5-min Rain = 0
KAM3 141447Z 18008KT 10/10 A3004 RMK A01 T00990098  RH  099%=      5-min Rain = 0
KAM3 141448Z 18007KT 10/10 A3004 RMK A01 T01000097  RH  098%=      5-min Rain = 0
KAM3 141449Z 18007KT 10/10 A3004 RMK A01 T01000097  RH  098%=      5-min Rain = 0
KAM3 141450Z 18008KT 10/10 A3004 RMK A01 T01010098  RH  097%=      5-min Rain = 0
KAM3 141451Z 18007KT 10/10 A3004 RMK A01 T01010096  RH  096%=      5-min Rain = 0
KAM3 141452Z 18006KT 10/10 A3004 RMK A01 T01020098  RH  097%=      5-min Rain = 0
KAM3 141453Z 18007KT 10/10 A3004 RMK A01 T01030099  RH  097%=      5-min Rain = 0
KAM3 141454Z 19007KT 10/10 A3004 RMK A01 T01040097  RH  095%=      5-min Rain = 0
KAM3 141455Z 19008KT 10/10 A3004 RMK A01 T01040095  RH  094%=      5-min Rain = 0
KAM3 141456Z 19008KT 10/09 A3004 RMK A01 T01040094  RH  094%=      5-min Rain = 0
KAM3 141457Z 18006KT 10/10 A3004 RMK A01 T01040097  RH  095%=      5-min Rain = 0
KAM3 141458Z 18007KT 11/10 A3004 RMK A01 T01060098  RH  095%=      5-min Rain = 0
KAM3 141459Z 18006KT 11/10 A3004 RMK A01 T01060098  RH  094%=      5-min Rain = 0
KAM3 141500Z 19006KT 11/10 A3004 RMK A01 T01080099  RH  094%=      5-min Rain = 0
KAM3 141501Z 19004KT 11/10 A3004 RMK A01 T01080099  RH  094%=      5-min Rain = 0
KAM3 141502Z 19006KT 11/10 A3004 RMK A01 T01090099  RH  094%=      5-min Rain = 0
KAM3 141503Z 20007KT 11/10 A3004 RMK A01 T01090099  RH  093%=      5-min Rain = 0
KAM3 141504Z 19007KT 11/10 A3004 RMK A01 T01100098  RH  093%=      5-min Rain = 0
KAM3 141505Z 19009KT 11/10 A3004 RMK A01 T01110098  RH  092%=      5-min Rain = 0
KAM3 141506Z 19007KT 11/10 A3004 RMK A01 T01110097  RH  091%=      5-min Rain = 0
KAM3 141507Z 19006KT 11/10 A3004 RMK A01 T01110098  RH  092%=      5-min Rain = 0
KAM3 141508Z 20007KT 11/10 A3004 RMK A01 T01130100  RH  092%=      5-min Rain = 0
KAM3 141509Z 20007KT 11/10 A3004 RMK A01 T01130097  RH  090%=      5-min Rain = 0
KAM3 141510Z 21007KT 11/10 A3004 RMK A01 T01130098  RH  090%=      5-min Rain = 0
KAM3 141511Z 20008KT 11/10 A3004 RMK A01 T01140099  RH  090%=      5-min Rain = 0
KAM3 141512Z 20008KT 11/10 A3004 RMK A01 T01140098  RH  090%=      5-min Rain = 0
KAM3 141513Z 20009KT 11/10 A3003 RMK A01 T01140099  RH  090%=      5-min Rain = 0
KAM3 141514Z 19008KT 12/10 A3003 RMK A01 T01150098  RH  090%=      5-min Rain = 0
KAM3 141515Z 20008KT 12/10 A3003 RMK A01 T01150098  RH  090%=      5-min Rain = 0
KAM3 141516Z 20008KT 12/10 A3003 RMK A01 T01150099  RH  090%=      5-min Rain = 0
KAM3 141517Z 20008KT 12/10 A3003 RMK A01 T01160098  RH  089%=      5-min Rain = 0
KAM3 141518Z 21009KT 12/10 A3003 RMK A01 T01170099  RH  089%=      5-min Rain = 0
KAM3 141519Z 21009KT 12/10 A3003 RMK A01 T01170099  RH  089%=      5-min Rain = 0
KAM3 141520Z 21008KT 12/10 A3003 RMK A01 T01180099  RH  088%=      5-min Rain = 0
KAM3 141521Z 21009KT 12/10 A3003 RMK A01 T01190098  RH  087%=      5-min Rain = 0
KAM3 141522Z 21008KT 12/10 A3003 RMK A01 T01190096  RH  085%=      5-min Rain = 0
KAM3 141523Z 21010KT 12/10 A3003 RMK A01 T01190097  RH  086%=      5-min Rain = 0
KAM3 141524Z 21008KT 12/10 A3003 RMK A01 T01190096  RH  086%=      5-min Rain = 0
KAM3 141525Z 21008KT 12/10 A3003 RMK A01 T01200098  RH  086%=      5-min Rain = 0
KAM3 141526Z 21007KT 12/10 A3003 RMK A01 T01210099  RH  087%=      5-min Rain = 0
KAM3 141527Z 21006KT 12/10 A3003 RMK A01 T01220098  RH  085%=      5-min Rain = 0
KAM3 141528Z 21007KT 12/10 A3003 RMK A01 T01230098  RH  085%=      5-min Rain = 0
KAM3 141529Z 21006KT 12/10 A3003 RMK A01 T01230097  RH  084%=      5-min Rain = 0
KAM3 141530Z 21007KT 12/10 A3003 RMK A01 T01240099  RH  085%=      5-min Rain = 0
KAM3 141531Z 21008KT 13/10 A3003 RMK A01 T01250098  RH  084%=      5-min Rain = 0
KAM3 141532Z 21007KT 13/10 A3003 RMK A01 T01250095  RH  082%=      5-min Rain = 0
KAM3 141533Z 21005KT 13/10 A3003 RMK A01 T01250095  RH  082%=      5-min Rain = 0
KAM3 141534Z 21005KT 13/10 A3003 RMK A01 T01250097  RH  083%=      5-min Rain = 0
KAM3 141535Z 20005KT 13/10 A3003 RMK A01 T01260099  RH  084%=      5-min Rain = 0
KAM3 141536Z 20006KT 13/10 A3003 RMK A01 T01270097  RH  082%=      5-min Rain = 0
KAM3 141537Z 20006KT 13/10 A3003 RMK A01 T01270098  RH  082%=      5-min Rain = 0
KAM3 141538Z 20006KT 13/10 A3003 RMK A01 T01280101  RH  084%=      5-min Rain = 0
KAM3 141539Z 20007KT 13/10 A3003 RMK A01 T01290099  RH  082%=      5-min Rain = 0
KAM3 141540Z 20007KT 13/10 A3003 RMK A01 T01290098  RH  082%=      5-min Rain = 0
KAM3 141541Z 21007KT 13/10 A3003 RMK A01 T01300100  RH  082%=      5-min Rain = 0
KAM3 141542Z 22007KT 13/10 A3003 RMK A01 T01300097  RH  081%=      5-min Rain = 0
KAM3 141543Z 22007KT 13/10 A3003 RMK A01 T01300097  RH  081%=      5-min Rain = 0
KAM3 141544Z 23008KT 13/10 A3003 RMK A01 T01300098  RH  081%=      5-min Rain = 0
KAM3 141545Z 23008KT 13/10 A3003 RMK A01 T01310097  RH  080%=      5-min Rain = 0
KAM3 141546Z 22007KT 13/10 A3003 RMK A01 T01310099  RH  081%=      5-min Rain = 0
KAM3 141547Z 21007KT 13/10 A3003 RMK A01 T01330101  RH  081%=      5-min Rain = 0
KAM3 141548Z 22009KT 14/10 A3003 RMK A01 T01350102  RH  080%=      5-min Rain = 0
KAM3 141549Z 21010KT 14/10 A3003 RMK A01 T01360098  RH  078%=      5-min Rain = 0
KAM3 141550Z 21009KT 14/10 A3003 RMK A01 T01360099  RH  078%=      5-min Rain = 0
KAM3 141551Z 21010KT 14/10 A3003 RMK A01 T01370098  RH  077%=      5-min Rain = 0
KAM3 141552Z 21010KT 14/10 A3003 RMK A01 T01370096  RH  076%=      5-min Rain = 0
KAM3 141553Z 21009KT 14/10 A3002 RMK A01 T01370097  RH  077%=      5-min Rain = 0
KAM3 141554Z 21010KT 14/10 A3002 RMK A01 T01380098  RH  077%=      5-min Rain = 0
KAM3 141555Z 21009KT 14/10 A3002 RMK A01 T01380097  RH  076%=      5-min Rain = 0
KAM3 141556Z 21009KT 14/10 A3002 RMK A01 T01390097  RH  076%=      5-min Rain = 0
KAM3 141557Z 20009KT 14/10 A3002 RMK A01 T01390097  RH  075%=      5-min Rain = 0
KAM3 141558Z 20008KT 14/10 A3002 RMK A01 T01410099  RH  076%=      5-min Rain = 0
KAM3 141559Z 21008KT 14/10 A3002 RMK A01 T01440099  RH  074%=      5-min Rain = 0
KAM3 141600Z 21009KT 15/10 A3002 RMK A01 T01460098  RH  073%=      5-min Rain = 0
KAM3 141601Z 21010KT 15/10 A3002 RMK A01 T01460096  RH  072%=      5-min Rain = 0
KAM3 141602Z 21008KT 15/10 A3002 RMK A01 T01450095  RH  072%=      5-min Rain = 0
KAM3 141603Z 21008KT 15/10 A3002 RMK A01 T01460097  RH  072%=      5-min Rain = 0
KAM3 141604Z 20009KT 15/10 A3002 RMK A01 T01470095  RH  071%=      5-min Rain = 0
KAM3 141605Z 21008KT 15/10 A3002 RMK A01 T01480095  RH  071%=      5-min Rain = 0
KAM3 141606Z 21009KT 15/09 A3002 RMK A01 T01480093  RH  070%=      5-min Rain = 0
KAM3 141607Z 21010KT 15/09 A3002 RMK A01 T01480093  RH  069%=      5-min Rain = 0
KAM3 141608Z 21009KT 15/09 A3002 RMK A01 T01480093  RH  070%=      5-min Rain = 0
KAM3 141609Z 21009KT 15/09 A3002 RMK A01 T01490093  RH  069%=      5-min Rain = 0
KAM3 141610Z 20008KT 15/09 A3002 RMK A01 T01490094  RH  070%=      5-min Rain = 0
KAM3 141611Z 22009KT 15/10 A3002 RMK A01 T01510097  RH  070%=      5-min Rain = 0
KAM3 141612Z 22009KT 15/10 A3002 RMK A01 T01540096  RH  068%=      5-min Rain = 0
KAM3 141613Z 22007KT 16/10 A3002 RMK A01 T01550095  RH  068%=      5-min Rain = 0
KAM3 141614Z 22009KT 16/10 A3002 RMK A01 T01560096  RH  067%=      5-min Rain = 0
KAM3 141615Z 21008KT 16/09 A3002 RMK A01 T01560093  RH  066%=      5-min Rain = 0
KAM3 141616Z 21008KT 16/10 A3002 RMK A01 T01560095  RH  067%=      5-min Rain = 0
KAM3 141617Z 21010KT 16/09 A3002 RMK A01 T01570093  RH  066%=      5-min Rain = 0
KAM3 141618Z 21008KT 16/09 A3002 RMK A01 T01570092  RH  065%=      5-min Rain = 0
KAM3 141619Z 22008KT 16/09 A3002 RMK A01 T01560093  RH  066%=      5-min Rain = 0
KAM3 141620Z 22009KT 16/09 A3002 RMK A01 T01560093  RH  066%=      5-min Rain = 0
KAM3 141621Z 22008KT 16/09 A3002 RMK A01 T01570093  RH  066%=      5-min Rain = 0
KAM3 141622Z 21007KT 16/09 A3002 RMK A01 T01590094  RH  065%=      5-min Rain = 0
KAM3 141623Z 22008KT 16/10 A3002 RMK A01 T01610095  RH  065%=      5-min Rain = 0
KAM3 141624Z 23007KT 16/09 A3002 RMK A01 T01620094  RH  064%=      5-min Rain = 0
KAM3 141625Z 23008KT 16/09 A3002 RMK A01 T01630094  RH  064%=      5-min Rain = 0
KAM3 141626Z 22010KT 16/09 A3002 RMK A01 T01630093  RH  063%=      5-min Rain = 0
KAM3 141627Z 22010KT 16/09 A3002 RMK A01 T01630092  RH  063%=      5-min Rain = 0
KAM3 141628Z 22008KT 16/09 A3002 RMK A01 T01630091  RH  062%=      5-min Rain = 0
KAM3 141629Z 22008KT 16/09 A3001 RMK A01 T01630092  RH  063%=      5-min Rain = 0
KAM3 141630Z 21008KT 16/09 A3001 RMK A01 T01640092  RH  062%=      5-min Rain = 0
KAM3 141631Z 21007KT 17/09 A3001 RMK A01 T01650092  RH  062%=      5-min Rain = 0
KAM3 141632Z 21010KT 17/09 A3001 RMK A01 T01660092  RH  061%=      5-min Rain = 0
KAM3 141633Z 21010KT 17/09 A3001 RMK A01 T01670092  RH  061%=      5-min Rain = 0
KAM3 141634Z 21010KT 17/09 A3001 RMK A01 T01680092  RH  061%=      5-min Rain = 0
KAM3 141635Z 20009KT 17/09 A3001 RMK A01 T01680093  RH  061%=      5-min Rain = 0
KAM3 141636Z 20009KT 17/09 A3001 RMK A01 T01690091  RH  060%=      5-min Rain = 0
KAM3 141637Z 20009KT 17/09 A3001 RMK A01 T01700092  RH  060%=      5-min Rain = 0
KAM3 141638Z 21011KT 17/09 A3001 RMK A01 T01700092  RH  060%=      5-min Rain = 0
KAM3 141639Z 22009KT 17/09 A3001 RMK A01 T01710092  RH  060%=      5-min Rain = 0
KAM3 141640Z 21009KT 17/09 A3001 RMK A01 T01710091  RH  059%=      5-min Rain = 0
KAM3 141641Z 21009KT 17/09 A3001 RMK A01 T01720091  RH  059%=      5-min Rain = 0
KAM3 141642Z 19009KT 17/09 A3001 RMK A01 T01720091  RH  059%=      5-min Rain = 0
KAM3 141643Z 19010KT 17/09 A3001 RMK A01 T01720091  RH  059%=      5-min Rain = 0
KAM3 141644Z 19010KT 17/09 A3001 RMK A01 T01730090  RH  058%=      5-min Rain = 0
KAM3 141645Z 19009KT 17/09 A3001 RMK A01 T01730090  RH  058%=      5-min Rain = 0
KAM3 141646Z 19008KT 17/09 A3001 RMK A01 T01720090  RH  059%=      5-min Rain = 0
KAM3 141647Z 20009KT 17/09 A3001 RMK A01 T01720091  RH  059%=      5-min Rain = 0
KAM3 141648Z 19009KT 17/09 A3001 RMK A01 T01730089  RH  058%=      5-min Rain = 0
KAM3 141649Z 20010KT 17/09 A3001 RMK A01 T01740088  RH  057%=      5-min Rain = 0
KAM3 141650Z 21009KT 17/09 A3001 RMK A01 T01740089  RH  057%=      5-min Rain = 0
KAM3 141651Z 21010KT 18/09 A3001 RMK A01 T01750089  RH  057%=      5-min Rain = 0
KAM3 141652Z 21007KT 18/09 A3001 RMK A01 T01750087  RH  056%=      5-min Rain = 0
KAM3 141653Z 20009KT 17/09 A3001 RMK A01 T01740087  RH  057%=      5-min Rain = 0
KAM3 141654Z 21008KT 18/09 A3001 RMK A01 T01750086  RH  056%=      5-min Rain = 0
KAM3 141655Z 21008KT 18/09 A3001 RMK A01 T01760088  RH  056%=      5-min Rain = 0
KAM3 141656Z 23006KT 18/09 A3001 RMK A01 T01780086  RH  055%=      5-min Rain = 0
KAM3 141657Z 22005KT 18/09 A3001 RMK A01 T01790087  RH  055%=      5-min Rain = 0
KAM3 141658Z 22005KT 18/09 A3001 RMK A01 T01820090  RH  055%=      5-min Rain = 0
KAM3 141659Z 22009KT 19/09 A3001 RMK A01 T01850087  RH  053%=      5-min Rain = 0
KAM3 141700Z 21008KT 19/08 A30 RMK A01 T01860084  RH  051%=      5-min Rain = 0
KAM3 141701Z 21007KT 19/09 A30 RMK A01 T01860087  RH  052%=      5-min Rain = 0
KAM3 141702Z 21007KT 19/09 A30 RMK A01 T01880086  RH  051%=      5-min Rain = 0
KAM3 141703Z 20009KT 19/08 A30 RMK A01 T01880084  RH  051%=      5-min Rain = 0
KAM3 141704Z 21007KT 19/08 A30 RMK A01 T01880082  RH  050%=      5-min Rain = 0
KAM3 141705Z 22006KT 19/08 A30 RMK A01 T01880083  RH  050%=      5-min Rain = 0
KAM3 141706Z 22006KT 19/08 A30 RMK A01 T01900083  RH  050%=      5-min Rain = 0
KAM3 141707Z 22008G13KT 19/08 A30 RMK A01 T01900084  RH  050%=      5-min Rain = 0
KAM3 141708Z 20006KT 19/08 A30 RMK A01 T01910082  RH  049%=      5-min Rain = 0
KAM3 141709Z 20009KT 19/08 A30 RMK A01 T01930084  RH  049%=      5-min Rain = 0
KAM3 141710Z 21008KT 19/08 A30 RMK A01 T01930084  RH  049%=      5-min Rain = 0
KAM3 141711Z 21008KT 19/08 A30 RMK A01 T01940084  RH  049%=      5-min Rain = 0
KAM3 141712Z 20009KT 19/08 A30 RMK A01 T01940081  RH  048%=      5-min Rain = 0
KAM3 141713Z 20010KT 20/08 A30 RMK A01 T01950081  RH  048%=      5-min Rain = 0
KAM3 141714Z 22007KT 19/08 A30 RMK A01 T01940080  RH  047%=      5-min Rain = 0
KAM3 141715Z 22007KT 19/08 A30 RMK A01 T01940081  RH  048%=      5-min Rain = 0
KAM3 141716Z 22008KT 19/08 A2999 RMK A01 T01940082  RH  048%=      5-min Rain = 0
KAM3 141717Z 21008KT 20/08 A2999 RMK A01 T01950081  RH  048%=      5-min Rain = 0
KAM3 141718Z 20007KT 20/08 A2999 RMK A01 T01960083  RH  048%=      5-min Rain = 0
KAM3 141719Z 20008KT 20/08 A2999 RMK A01 T01970081  RH  047%=      5-min Rain = 0
KAM3 141720Z 21006KT 20/08 A2999 RMK A01 T01970081  RH  047%=      5-min Rain = 0
KAM3 141721Z 20005KT 20/08 A2999 RMK A01 T01960081  RH  047%=      5-min Rain = 0
KAM3 141722Z 20003KT 20/08 A2999 RMK A01 T01950081  RH  048%=      5-min Rain = 0
KAM3 141723Z 22003KT 20/08 A2999 RMK A01 T01950082  RH  048%=      5-min Rain = 0
KAM3 141724Z 23004KT 20/08 A2999 RMK A01 T01970084  RH  048%=      5-min Rain = 0
KAM3 141725Z 24007KT 20/08 A2999 RMK A01 T01990083  RH  047%=      5-min Rain = 0
KAM3 141726Z 22008KT 20/08 A2999 RMK A01 T02010082  RH  046%=      5-min Rain = 0
KAM3 141727Z 21010KT 20/08 A2999 RMK A01 T02020082  RH  046%=      5-min Rain = 0
KAM3 141728Z 21008KT 20/08 A2998 RMK A01 T02040083  RH  046%=      5-min Rain = 0
KAM3 141729Z 21008KT 21/08 A2998 RMK A01 T02050082  RH  045%=      5-min Rain = 0
KAM3 141730Z 20009KT 21/08 A2998 RMK A01 T02060083  RH  045%=      5-min Rain = 0
KAM3 141731Z 20007KT 21/08 A2998 RMK A01 T02070081  RH  044%=      5-min Rain = 0
KAM3 141732Z 21007G12KT 21/08 A2998 RMK A01 T02060083  RH  045%=      5-min Rain = 0
KAM3 141733Z 21009KT 21/08 A2998 RMK A01 T02080084  RH  045%=      5-min Rain = 0
KAM3 141734Z 20007KT 21/08 A2998 RMK A01 T02090081  RH  044%=      5-min Rain = 0
KAM3 141735Z 20007KT 21/08 A2998 RMK A01 T02080083  RH  044%=      5-min Rain = 0
KAM3 141736Z 20007KT 21/08 A2998 RMK A01 T02090083  RH  044%=      5-min Rain = 0
KAM3 141737Z 21008KT 21/08 A2998 RMK A01 T02100084  RH  044%=      5-min Rain = 0
KAM3 141738Z 23008KT 21/08 A2998 RMK A01 T02100082  RH  044%=      5-min Rain = 0
KAM3 141739Z 21008KT 21/08 A2998 RMK A01 T02120083  RH  044%=      5-min Rain = 0
KAM3 141740Z 21007KT 21/08 A2998 RMK A01 T02120084  RH  043%=      5-min Rain = 0
KAM3 141741Z 21010KT 21/08 A2997 RMK A01 T02130084  RH  043%=      5-min Rain = 0
KAM3 141742Z 22009KT 21/08 A2997 RMK A01 T02140083  RH  043%=      5-min Rain = 0
KAM3 141743Z 22006KT 22/09 A2997 RMK A01 T02150086  RH  044%=      5-min Rain = 0
KAM3 141744Z 21008KT 22/09 A2997 RMK A01 T02170085  RH  043%=      5-min Rain = 0
KAM3 141745Z 21009KT 22/09 A2997 RMK A01 T02190086  RH  042%=      5-min Rain = 0
KAM3 141746Z 22008KT 22/08 A2997 RMK A01 T02200084  RH  042%=      5-min Rain = 0
KAM3 141747Z 21006KT 22/08 A2997 RMK A01 T02180083  RH  042%=      5-min Rain = 0
KAM3 141748Z 21005KT 22/09 A2997 RMK A01 T02170085  RH  043%=      5-min Rain = 0
KAM3 141749Z 19005KT 22/09 A2997 RMK A01 T02160085  RH  043%=      5-min Rain = 0
KAM3 141750Z 20008KT 22/09 A2997 RMK A01 T02180085  RH  042%=      5-min Rain = 0
KAM3 141751Z 21007KT 22/08 A2996 RMK A01 T02200084  RH  042%=      5-min Rain = 0
KAM3 141752Z 20005KT 22/08 A2996 RMK A01 T02210084  RH  041%=      5-min Rain = 0
KAM3 141753Z 20007G12KT 22/09 A2996 RMK A01 T02220086  RH  042%=      5-min Rain = 0
KAM3 141754Z 21011KT 23/09 A2996 RMK A01 T02250085  RH  041%=      5-min Rain = 0
KAM3 141755Z 22009KT 23/08 A2996 RMK A01 T02270083  RH  040%=      5-min Rain = 0
KAM3 141756Z 21010KT 23/08 A2996 RMK A01 T02270083  RH  040%=      5-min Rain = 0
KAM3 141757Z 21011KT 23/08 A2996 RMK A01 T02270083  RH  040%=      5-min Rain = 0
KAM3 141758Z 21012KT 23/08 A2996 RMK A01 T02270082  RH  039%=      5-min Rain = 0
KAM3 141759Z 21008KT 23/08 A2996 RMK A01 T02280081  RH  039%=      5-min Rain = 0
KAM3 141800Z 21009KT 23/09 A2995 RMK A01 T02290085  RH  040%=      5-min Rain = 0
KAM3 141801Z 22008KT 23/08 A2995 RMK A01 T02310084  RH  039%=      5-min Rain = 0
KAM3 141802Z 24007KT 23/08 A2995 RMK A01 T02310083  RH  039%=      5-min Rain = 0
KAM3 141803Z 22011KT 23/08 A2995 RMK A01 T02300084  RH  039%=      5-min Rain = 0
KAM3 141804Z 23011KT 23/08 A2995 RMK A01 T02310082  RH  038%=      5-min Rain = 0
KAM3 141805Z 22008KT 23/08 A2995 RMK A01 T02330080  RH  037%=      5-min Rain = 0
KAM3 141806Z 22008KT 23/08 A2995 RMK A01 T02330081  RH  038%=      5-min Rain = 0
KAM3 141807Z 21008G13KT 23/08 A2995 RMK A01 T02340082  RH  038%=      5-min Rain = 0
KAM3 141808Z 21009KT 24/08 A2995 RMK A01 T02350082  RH  037%=      5-min Rain = 0
KAM3 141809Z 23006KT 24/08 A2995 RMK A01 T02350081  RH  037%=      5-min Rain = 0
KAM3 141810Z 24009KT 24/08 A2994 RMK A01 T02350081  RH  037%=      5-min Rain = 0
KAM3 141811Z 23008KT 24/08 A2994 RMK A01 T02350081  RH  037%=      5-min Rain = 0
KAM3 141812Z 21009KT 24/08 A2994 RMK A01 T02360081  RH  037%=      5-min Rain = 0
KAM3 141813Z 21010KT 24/08 A2994 RMK A01 T02370082  RH  037%=      5-min Rain = 0
KAM3 141814Z 21011KT 24/08 A2994 RMK A01 T02390082  RH  037%=      5-min Rain = 0
KAM3 141815Z 22009KT 24/08 A2994 RMK A01 T02400081  RH  036%=      5-min Rain = 0
KAM3 141816Z 21010KT 24/08 A2994 RMK A01 T02410082  RH  036%=      5-min Rain = 0
KAM3 141817Z 21010KT 24/08 A2994 RMK A01 T02440083  RH  036%=      5-min Rain = 0
KAM3 141818Z 22009KT 25/08 A2994 RMK A01 T02470081  RH  035%=      5-min Rain = 0
KAM3 141819Z 22008KT 25/08 A2994 RMK A01 T02470081  RH  035%=      5-min Rain = 0
KAM3 141820Z 22008KT 25/08 A2994 RMK A01 T02460082  RH  035%=      5-min Rain = 0
KAM3 141821Z 21008KT 25/08 A2994 RMK A01 T02460083  RH  036%=      5-min Rain = 0
KAM3 141822Z 22011KT 25/08 A2994 RMK A01 T02470082  RH  035%=      5-min Rain = 0
KAM3 141823Z 23010KT 25/08 A2993 RMK A01 T02490081  RH  034%=      5-min Rain = 0
KAM3 141824Z 23009KT 25/08 A2993 RMK A01 T02480082  RH  035%=      5-min Rain = 0
KAM3 141825Z 23010KT 25/08 A2993 RMK A01 T02490082  RH  034%=      5-min Rain = 0
KAM3 141826Z 22011KT 25/08 A2993 RMK A01 T02490080  RH  034%=      5-min Rain = 0
KAM3 141827Z 21007KT 25/08 A2993 RMK A01 T02480078  RH  034%=      5-min Rain = 0
KAM3 141828Z 22009KT 25/08 A2993 RMK A01 T02480081  RH  034%=      5-min Rain = 0
KAM3 141829Z 22010KT 25/08 A2993 RMK A01 T02500079  RH  033%=      5-min Rain = 0
KAM3 141830Z 22011KT 25/08 A2993 RMK A01 T02500078  RH  033%=      5-min Rain = 0
KAM3 141831Z 23011KT 25/08 A2993 RMK A01 T02500078  RH  033%=      5-min Rain = 0
KAM3 141832Z 22010KT 25/08 A2993 RMK A01 T02500077  RH  033%=      5-min Rain = 0
KAM3 141833Z 22009KT 25/08 A2993 RMK A01 T02510078  RH  033%=      5-min Rain = 0
KAM3 141834Z 22008KT 25/08 A2993 RMK A01 T02530076  RH  032%=      5-min Rain = 0
KAM3 141835Z 22004KT 25/08 A2993 RMK A01 T02540078  RH  033%=      5-min Rain = 0
KAM3 141836Z 26005KT 26/08 A2993 RMK A01 T02570079  RH  032%=      5-min Rain = 0
KAM3 141837Z 25005KT 26/08 A2993 RMK A01 T02580082  RH  033%=      5-min Rain = 0
KAM3 141838Z 26005KT 26/08 A2993 RMK A01 T02600075  RH  031%=      5-min Rain = 0
KAM3 141839Z 25005KT 26/08 A2992 RMK A01 T02580082  RH  033%=      5-min Rain = 0
KAM3 141840Z 23009KT 26/08 A2992 RMK A01 T02570076  RH  032%=      5-min Rain = 0
KAM3 141841Z 23006KT 26/07 A2992 RMK A01 T02570073  RH  031%=      5-min Rain = 0
KAM3 141842Z 29008KT 26/08 A2992 RMK A01 T02580081  RH  033%=      5-min Rain = 0
KAM3 141843Z 31007KT 26/09 A2992 RMK A01 T02560085  RH  034%=      5-min Rain = 0
KAM3 141844Z 30003KT 25/08 A2992 RMK A01 T02530084  RH  034%=      5-min Rain = 0
KAM3 141845Z 27003KT 25/08 A2992 RMK A01 T02510082  RH  034%=      5-min Rain = 0
KAM3 141846Z 29008KT 25/08 A2992 RMK A01 T02500079  RH  034%=      5-min Rain = 0
KAM3 141847Z 30008KT 25/08 A2992 RMK A01 T02510083  RH  034%=      5-min Rain = 0
KAM3 141848Z 30006KT 25/08 A2992 RMK A01 T02520084  RH  034%=      5-min Rain = 0
KAM3 141849Z 31003KT 25/08 A2992 RMK A01 T02510081  RH  034%=      5-min Rain = 0
KAM3 141850Z 27005KT 25/08 A2991 RMK A01 T02510082  RH  034%=      5-min Rain = 0
KAM3 141851Z 28006KT 25/08 A2991 RMK A01 T02510080  RH  034%=      5-min Rain = 0
KAM3 141852Z 28006KT 25/08 A2991 RMK A01 T02520084  RH  034%=      5-min Rain = 0
KAM3 141853Z 29007KT 26/08 A2991 RMK A01 T02550082  RH  033%=      5-min Rain = 0
KAM3 141854Z 28004KT 26/08 A2991 RMK A01 T02560079  RH  032%=      5-min Rain = 0
KAM3 141855Z 25003KT 26/08 A2991 RMK A01 T02560076  RH  032%=      5-min Rain = 0
KAM3 141856Z 26005KT 26/08 A2991 RMK A01 T02560079  RH  032%=      5-min Rain = 0
KAM3 141857Z 29004KT 26/09 A2991 RMK A01 T02580085  RH  033%=      5-min Rain = 0
KAM3 141858Z 30004KT 26/09 A2991 RMK A01 T02610087  RH  033%=      5-min Rain = 0
KAM3 141859Z 30006KT 26/09 A2991 RMK A01 T02620086  RH  033%=      5-min Rain = 0
KAM3 141900Z 32003KT 26/08 A2991 RMK A01 T02600082  RH  032%=      5-min Rain = 0
KAM3 141901Z 28007KT 26/08 A2991 RMK A01 T02590084  RH  033%=      5-min Rain = 0
KAM3 141902Z 25009KT 26/08 A299 RMK A01 T02610081  RH  032%=      5-min Rain = 0
KAM3 141903Z 25010KT 26/08 A299 RMK A01 T02640075  RH  030%=      5-min Rain = 0
KAM3 141904Z 24005KT 26/07 A299 RMK A01 T02610071  RH  030%=      5-min Rain = 0
KAM3 141905Z 26004KT 26/08 A299 RMK A01 T02600075  RH  031%=      5-min Rain = 0
KAM3 141906Z 26005KT 26/07 A299 RMK A01 T02610074  RH  031%=      5-min Rain = 0
KAM3 141907Z 26008KT 26/07 A299 RMK A01 T02620071  RH  030%=      5-min Rain = 0
KAM3 141908Z 23008KT 26/07 A299 RMK A01 T02620071  RH  030%=      5-min Rain = 0
KAM3 141909Z 26007KT 26/07 A299 RMK A01 T02620071  RH  030%=      5-min Rain = 0
KAM3 141910Z 26008KT 26/07 A299 RMK A01 T02630073  RH  030%=      5-min Rain = 0
KAM3 141911Z 24010KT 26/07 A299 RMK A01 T02640071  RH  029%=      5-min Rain = 0
KAM3 141912Z 23009KT 27/07 A299 RMK A01 T02650072  RH  029%=      5-min Rain = 0
KAM3 141913Z 24008KT 26/07 A299 RMK A01 T02630073  RH  030%=      5-min Rain = 0
KAM3 141914Z 21008KT 26/07 A299 RMK A01 T02640072  RH  030%=      5-min Rain = 0
KAM3 141915Z 21005KT 26/07 A299 RMK A01 T02640069  RH  029%=      5-min Rain = 0
KAM3 141916Z 25010KT 26/07 A299 RMK A01 T02640069  RH  029%=      5-min Rain = 0
KAM3 141917Z 24008KT 26/07 A299 RMK A01 T02640065  RH  028%=      5-min Rain = 0
KAM3 141918Z 24007KT 26/07 A2989 RMK A01 T02640065  RH  028%=      5-min Rain = 0
KAM3 141919Z 23007KT 26/06 A2989 RMK A01 T02640061  RH  027%=      5-min Rain = 0
KAM3 141920Z 22006KT 27/06 A2989 RMK A01 T02660061  RH  027%=      5-min Rain = 0
KAM3 141921Z 24006KT 27/06 A2989 RMK A01 T02660064  RH  028%=      5-min Rain = 0
KAM3 141922Z 25010KT 27/06 A2989 RMK A01 T02670064  RH  027%=      5-min Rain = 0
KAM3 141923Z 24008G13KT 27/06 A2989 RMK A01 T02680059  RH  026%=      5-min Rain = 0
KAM3 141924Z 23012KT 27/05 A2989 RMK A01 T02700052  RH  025%=      5-min Rain = 0
KAM3 141925Z 22011KT 27/05 A2989 RMK A01 T02700045  RH  024%=      5-min Rain = 0
KAM3 141926Z 23011KT 27/05 A2988 RMK A01 T02690050  RH  025%=      5-min Rain = 0
KAM3 141927Z 23008KT 27/05 A2988 RMK A01 T02690050  RH  025%=      5-min Rain = 0
KAM3 141928Z 24009KT 27/05 A2988 RMK A01 T02680053  RH  025%=      5-min Rain = 0
KAM3 141929Z 24010KT 27/06 A2988 RMK A01 T02690058  RH  026%=      5-min Rain = 0
KAM3 141930Z 21011KT 27/05 A2988 RMK A01 T02710051  RH  024%=      5-min Rain = 0
KAM3 141931Z 21014KT 27/03 A2988 RMK A01 T02740034  RH  021%=      5-min Rain = 0
KAM3 141932Z 22013KT 28/03 A2988 RMK A01 T02750030  RH  021%=      5-min Rain = 0
KAM3 141933Z 23012KT 28/03 A2988 RMK A01 T02780029  RH  020%=      5-min Rain = 0
KAM3 141934Z 23014KT 28/02 A2988 RMK A01 T02780024  RH  019%=      5-min Rain = 0
KAM3 141935Z 21012KT 28/03 A2988 RMK A01 T02790029  RH  020%=      5-min Rain = 0
KAM3 141936Z 22013KT 28/03 A2988 RMK A01 T02800027  RH  020%=      5-min Rain = 0
KAM3 141937Z 22013KT 28/03 A2988 RMK A01 T02800028  RH  020%=      5-min Rain = 0
KAM3 141938Z 22012KT 28/03 A2988 RMK A01 T02790026  RH  020%=      5-min Rain = 0
KAM3 141939Z 22011KT 28/03 A2988 RMK A01 T02780025  RH  020%=      5-min Rain = 0
KAM3 141940Z 22011KT 28/03 A2988 RMK A01 T02780027  RH  020%=      5-min Rain = 0
KAM3 141941Z 22013KT 28/03 A2988 RMK A01 T02800028  RH  020%=      5-min Rain = 0
KAM3 141942Z 22015KT 28/02 A2988 RMK A01 T02810024  RH  019%=      5-min Rain = 0
KAM3 141943Z 22014KT 28/03 A2988 RMK A01 T02800025  RH  019%=      5-min Rain = 0
KAM3 141944Z 24012KT 28/02 A2988 RMK A01 T02800022  RH  019%=      5-min Rain = 0
KAM3 141945Z 23010KT 28/02 A2988 RMK A01 T02790023  RH  019%=      5-min Rain = 0
KAM3 141946Z 21014KT 28/02 A2988 RMK A01 T02790024  RH  019%=      5-min Rain = 0
KAM3 141947Z 21014KT 28/02 A2988 RMK A01 T02810021  RH  019%=      5-min Rain = 0
KAM3 141948Z 21011KT 28/02 A2988 RMK A01 T02820018  RH  018%=      5-min Rain = 0
KAM3 141949Z 22010KT 28/02 A2987 RMK A01 T02820021  RH  019%=      5-min Rain = 0
KAM3 141950Z 22014KT 28/02 A2987 RMK A01 T02820019  RH  018%=      5-min Rain = 0
KAM3 141951Z 22014KT 28/02 A2987 RMK A01 T02820015  RH  018%=      5-min Rain = 0
KAM3 141952Z 22013KT 28/01 A2987 RMK A01 T02820012  RH  017%=      5-min Rain = 0
KAM3 141953Z 23011KT 28/01 A2987 RMK A01 T02800011  RH  018%=      5-min Rain = 0
KAM3 141954Z 23008KT 28/01 A2987 RMK A01 T02790014  RH  018%=      5-min Rain = 0
KAM3 141955Z 22009KT 28/02 A2987 RMK A01 T02800016  RH  018%=      5-min Rain = 0
KAM3 141956Z 24011KT 28/02 A2987 RMK A01 T02820018  RH  018%=      5-min Rain = 0
KAM3 141957Z 24012KT 28/01 A2987 RMK A01 T02830013  RH  017%=      5-min Rain = 0
KAM3 141958Z 23008KT 28/01 A2987 RMK A01 T02820013  RH  018%=      5-min Rain = 0
KAM3 141959Z 22011KT 28/02 A2987 RMK A01 T02830017  RH  018%=      5-min Rain = 0
KAM3 142000Z 21013KT 29/02 A2987 RMK A01 T02870016  RH  017%=      5-min Rain = 0
KAM3 142001Z 22015KT 29/02 A2987 RMK A01 T02870016  RH  017%=      5-min Rain = 0
KAM3 142002Z 22010G15KT 29/01 A2987 RMK A01 T02860014  RH  017%=      5-min Rain = 0
KAM3 142003Z 23008KT 28/01 A2987 RMK A01 T02830013  RH  018%=      5-min Rain = 0
KAM3 142004Z 21009KT 28/01 A2987 RMK A01 T02810013  RH  018%=      5-min Rain = 0
KAM3 142005Z 22014KT 28/01 A2987 RMK A01 T02830014  RH  018%=      5-min Rain = 0
KAM3 142006Z 22015KT 29/01 A2986 RMK A01 T02850013  RH  017%=      5-min Rain = 0
KAM3 142007Z 22014KT 28/01 A2986 RMK A01 T02840008  RH  017%=      5-min Rain = 0
KAM3 142008Z 22012KT 28/01 A2986 RMK A01 T02830009  RH  017%=      5-min Rain = 0
KAM3 142009Z 23009G14KT 29/01 A2986 RMK A01 T02850014  RH  017%=      5-min Rain = 0
KAM3 142010Z 23012KT 29/01 A2986 RMK A01 T02870010  RH  017%=      5-min Rain = 0
KAM3 142011Z 23012KT 29/01 A2986 RMK A01 T02860010  RH  017%=      5-min Rain = 0
KAM3 142012Z 25013KT 29/01 A2986 RMK A01 T02860013  RH  017%=      5-min Rain = 0
KAM3 142013Z 23010KT 29/01 A2986 RMK A01 T02860012  RH  017%=      5-min Rain = 0
KAM3 142014Z 22012KT 29/01 A2986 RMK A01 T02850012  RH  017%=      5-min Rain = 0
KAM3 142015Z 22010KT 29/01 A2986 RMK A01 T02850010  RH  017%=      5-min Rain = 0
KAM3 142016Z 21009KT 28/01 A2986 RMK A01 T02840012  RH  017%=      5-min Rain = 0
KAM3 142017Z 23009KT 29/02 A2986 RMK A01 T02860015  RH  017%=      5-min Rain = 0
KAM3 142018Z 24014G19KT 29/01 A2986 RMK A01 T02880011  RH  017%=      5-min Rain = 0
KAM3 142019Z 23014KT 29/01 A2986 RMK A01 T02880007  RH  016%=      5-min Rain = 0
KAM3 142020Z 22012KT 29/01 A2986 RMK A01 T02860007  RH  016%=      5-min Rain = 0
KAM3 142021Z 22011KT 29/01 A2986 RMK A01 T02860010  RH  017%=      5-min Rain = 0
KAM3 142022Z 22009KT 29/01 A2986 RMK A01 T02870010  RH  017%=      5-min Rain = 0
KAM3 142023Z 23009KT 29/01 A2986 RMK A01 T02880011  RH  017%=      5-min Rain = 0
KAM3 142024Z 22012KT 29/01 A2986 RMK A01 T02870011  RH  017%=      5-min Rain = 0
KAM3 142025Z 21009KT 29/01 A2986 RMK A01 T02860008  RH  017%=      5-min Rain = 0
KAM3 142026Z 22007KT 28/01 A2986 RMK A01 T02840008  RH  017%=      5-min Rain = 0
KAM3 142027Z 22012G17KT 29/01 A2986 RMK A01 T02850010  RH  017%=      5-min Rain = 0
KAM3 142028Z 22016KT 29/01 A2986 RMK A01 T02870007  RH  016%=      5-min Rain = 0
KAM3 142029Z 22013KT 29/M00 A2986 RMK A01 T02881003  RH  015%=      5-min Rain = 0
KAM3 142030Z 22013KT 29/M00 A2986 RMK A01 T02891002  RH  015%=      5-min Rain = 0
KAM3 142031Z 22011KT 29/M01 A2986 RMK A01 T02901011  RH  014%=      5-min Rain = 0
KAM3 142032Z 22011KT 29/M01 A2986 RMK A01 T02891010  RH  014%=      5-min Rain = 0
KAM3 142033Z 22012KT 29/M01 A2985 RMK A01 T02891005  RH  015%=      5-min Rain = 0
KAM3 142034Z 21009KT 29/00 A2985 RMK A01 T02890002  RH  016%=      5-min Rain = 0
KAM3 142035Z 23012KT 29/M00 A2985 RMK A01 T02901001  RH  015%=      5-min Rain = 0
KAM3 142036Z 23013KT 29/M00 A2985 RMK A01 T02911001  RH  015%=      5-min Rain = 0
KAM3 142037Z 23013KT 29/M01 A2985 RMK A01 T02931006  RH  014%=      5-min Rain = 0
KAM3 142038Z 22016KT 29/M01 A2985 RMK A01 T02931006  RH  014%=      5-min Rain = 0
KAM3 142039Z 22014KT 29/M01 A2985 RMK A01 T02901006  RH  015%=      5-min Rain = 0
KAM3 142040Z 22015KT 29/M01 A2985 RMK A01 T02881007  RH  015%=      5-min Rain = 0
KAM3 142041Z 24013KT 29/M01 A2985 RMK A01 T02881009  RH  014%=      5-min Rain = 0
KAM3 142042Z 24012KT 29/M01 A2985 RMK A01 T02881010  RH  014%=      5-min Rain = 0
KAM3 142043Z 21015KT 29/M01 A2985 RMK A01 T02891008  RH  014%=      5-min Rain = 0
KAM3 142044Z 23011KT 29/M01 A2985 RMK A01 T02901007  RH  014%=      5-min Rain = 0
KAM3 142045Z 22015KT 29/M01 A2985 RMK A01 T02921008  RH  014%=      5-min Rain = 0
KAM3 142046Z 23012KT 29/M01 A2985 RMK A01 T02901008  RH  014%=      5-min Rain = 0
KAM3 142047Z 23009KT 29/M00 A2985 RMK A01 T02891004  RH  015%=      5-min Rain = 0
KAM3 142048Z 24012KT 29/M00 A2985 RMK A01 T02901002  RH  015%=      5-min Rain = 0
KAM3 142049Z 24010KT 29/M01 A2985 RMK A01 T02891006  RH  015%=      5-min Rain = 0
KAM3 142050Z 25013KT 29/00 A2985 RMK A01 T028800-0  RH  015%=      5-min Rain = 0
KAM3 142051Z 24013KT 29/M00 A2985 RMK A01 T02901001  RH  015%=      5-min Rain = 0
KAM3 142052Z 23013KT 29/M00 A2985 RMK A01 T02891004  RH  015%=      5-min Rain = 0
KAM3 142053Z 22013KT 29/M00 A2985 RMK A01 T02871004  RH  015%=      5-min Rain = 0
KAM3 142054Z 24010G15KT 29/M00 A2985 RMK A01 T02871002  RH  015%=      5-min Rain = 0
KAM3 142055Z 24010KT 29/00 A2985 RMK A01 T02890002  RH  016%=      5-min Rain = 0
KAM3 142056Z 23010KT 29/00 A2985 RMK A01 T02910000  RH  015%=      5-min Rain = 0
KAM3 142057Z 22013KT 29/M00 A2985 RMK A01 T02921001  RH  015%=      5-min Rain = 0
KAM3 142058Z 22013KT 29/M00 A2985 RMK A01 T02941003  RH  015%=      5-min Rain = 0
KAM3 142059Z 22012KT 29/M00 A2985 RMK A01 T02941004  RH  014%=      5-min Rain = 0
KAM3 142100Z 22017KT 29/M01 A2984 RMK A01 T02941006  RH  014%=      5-min Rain = 0
KAM3 142101Z 23015KT 29/M01 A2984 RMK A01 T02941007  RH  014%=      5-min Rain = 0
KAM3 142102Z 23016KT 29/M01 A2984 RMK A01 T02941005  RH  014%=      5-min Rain = 0
KAM3 142103Z 24016KT 30/M00 A2984 RMK A01 T02951004  RH  014%=      5-min Rain = 0
KAM3 142104Z 23019KT 30/M01 A2984 RMK A01 T02961006  RH  014%=      5-min Rain = 0
KAM3 142105Z 23015KT 29/M01 A2984 RMK A01 T02931010  RH  014%=      5-min Rain = 0
KAM3 142106Z 23015KT 29/M01 A2984 RMK A01 T02911008  RH  014%=      5-min Rain = 0
KAM3 142107Z 22018KT 29/M01 A2984 RMK A01 T02911007  RH  014%=      5-min Rain = 0
KAM3 142108Z 22017G22KT 29/M01 A2984 RMK A01 T02911005  RH  015%=      5-min Rain = 0
KAM3 142109Z 22015KT 29/M00 A2984 RMK A01 T02921003  RH  015%=      5-min Rain = 0
KAM3 142110Z 22014KT 29/00 A2984 RMK A01 T029200-0  RH  015%=      5-min Rain = 0
KAM3 142111Z 23013KT 29/M00 A2984 RMK A01 T02921001  RH  015%=      5-min Rain = 0
KAM3 142112Z 22012KT 29/00 A2984 RMK A01 T029000-0  RH  015%=      5-min Rain = 0
KAM3 142113Z 22013KT 29/M00 A2984 RMK A01 T02891002  RH  015%=      5-min Rain = 0
KAM3 142114Z 21018KT 29/00 A2984 RMK A01 T028700-0  RH  015%=      5-min Rain = 0
KAM3 142115Z 22017KT 29/00 A2984 RMK A01 T02870004  RH  016%=      5-min Rain = 0
KAM3 142116Z 21016KT 29/01 A2984 RMK A01 T02860005  RH  016%=      5-min Rain = 0
KAM3 142117Z 21015KT 29/01 A2984 RMK A01 T02860007  RH  016%=      5-min Rain = 0
KAM3 142118Z 21014KT 29/01 A2984 RMK A01 T02880008  RH  016%=      5-min Rain = 0
KAM3 142119Z 22016KT 29/01 A2984 RMK A01 T02890007  RH  016%=      5-min Rain = 0
KAM3 142120Z 22016KT 29/01 A2984 RMK A01 T02890007  RH  016%=      5-min Rain = 0
KAM3 142121Z 22013KT 29/01 A2984 RMK A01 T02880008  RH  016%=      5-min Rain = 0
KAM3 142122Z 21013KT 29/01 A2983 RMK A01 T02880011  RH  017%=      5-min Rain = 0
KAM3 142123Z 21016G21KT 29/01 A2983 RMK A01 T02890011  RH  017%=      5-min Rain = 0
KAM3 142124Z 21018KT 29/01 A2983 RMK A01 T02890011  RH  017%=      5-min Rain = 0
KAM3 142125Z 21013KT 29/01 A2983 RMK A01 T02870011  RH  017%=      5-min Rain = 0
KAM3 142126Z 21013KT 29/01 A2983 RMK A01 T02860014  RH  017%=      5-min Rain = 0
KAM3 142127Z 21014KT 29/01 A2983 RMK A01 T02860014  RH  017%=      5-min Rain = 0
KAM3 142128Z 21012KT 29/01 A2983 RMK A01 T02860013  RH  017%=      5-min Rain = 0
KAM3 142129Z 20013KT 29/01 A2983 RMK A01 T02860014  RH  017%=      5-min Rain = 0
KAM3 142130Z 21014KT 29/01 A2983 RMK A01 T02850011  RH  017%=      5-min Rain = 0
KAM3 142131Z 21013G18KT 28/01 A2983 RMK A01 T02840011  RH  017%=      5-min Rain = 0
KAM3 142132Z 21014KT 28/01 A2983 RMK A01 T02840011  RH  017%=      5-min Rain = 0
KAM3 142133Z 22015KT 28/01 A2983 RMK A01 T02840008  RH  017%=      5-min Rain = 0
KAM3 142134Z 22013KT 29/01 A2983 RMK A01 T02850010  RH  017%=      5-min Rain = 0
KAM3 142135Z 22012KT 29/01 A2983 RMK A01 T02850010  RH  017%=      5-min Rain = 0
KAM3 142136Z 23013KT 29/01 A2983 RMK A01 T02860009  RH  017%=      5-min Rain = 0
KAM3 142137Z 23014KT 29/00 A2983 RMK A01 T02870003  RH  016%=      5-min Rain = 0
KAM3 142138Z 22012KT 29/00 A2983 RMK A01 T02870003  RH  016%=      5-min Rain = 0
KAM3 142139Z 24013KT 29/00 A2983 RMK A01 T02880004  RH  016%=      5-min Rain = 0
KAM3 142140Z 24013G18KT 29/00 A2983 RMK A01 T02880003  RH  016%=      5-min Rain = 0
KAM3 142141Z 23013KT 29/00 A2983 RMK A01 T02880003  RH  016%=      5-min Rain = 0
KAM3 142142Z 23014KT 29/00 A2983 RMK A01 T02870003  RH  016%=      5-min Rain = 0
KAM3 142143Z 23013KT 29/00 A2983 RMK A01 T02860003  RH  016%=      5-min Rain = 0
KAM3 142144Z 22012KT 29/01 A2983 RMK A01 T02860005  RH  016%=      5-min Rain = 0
KAM3 142145Z 23014KT 29/00 A2983 RMK A01 T02860004  RH  016%=      5-min Rain = 0
KAM3 142146Z 23015KT 29/00 A2983 RMK A01 T02860002  RH  016%=      5-min Rain = 0
KAM3 142147Z 22014KT 29/00 A2983 RMK A01 T02860001  RH  016%=      5-min Rain = 0
KAM3 142148Z 22013KT 28/00 A2983 RMK A01 T02840002  RH  016%=      5-min Rain = 0
KAM3 142149Z 22015KT 28/00 A2983 RMK A01 T02820001  RH  016%=      5-min Rain = 0
KAM3 142150Z 22015KT 28/00 A2983 RMK A01 T02810003  RH  016%=      5-min Rain = 0
KAM3 142151Z 22015KT 28/00 A2983 RMK A01 T02800003  RH  017%=      5-min Rain = 0
KAM3 142152Z 22015KT 28/00 A2983 RMK A01 T02790003  RH  017%=      5-min Rain = 0
KAM3 142153Z 23012KT 28/00 A2983 RMK A01 T02800004  RH  017%=      5-min Rain = 0
KAM3 142154Z 23013KT 28/01 A2983 RMK A01 T02820005  RH  017%=      5-min Rain = 0
KAM3 142155Z 23014KT 28/01 A2983 RMK A01 T02830005  RH  016%=      5-min Rain = 0
KAM3 142156Z 22014KT 28/00 A2983 RMK A01 T02840003  RH  016%=      5-min Rain = 0
KAM3 142157Z 23015KT 29/00 A2983 RMK A01 T02860003  RH  016%=      5-min Rain = 0
KAM3 142158Z 23014KT 29/00 A2983 RMK A01 T02870001  RH  016%=      5-min Rain = 0
KAM3 142159Z 23014KT 29/00 A2983 RMK A01 T02880001  RH  016%=      5-min Rain = 0
KAM3 142200Z 25016KT 29/00 A2983 RMK A01 T028900-0  RH  015%=      5-min Rain = 0
KAM3 142201Z 25016KT 29/M00 A2983 RMK A01 T02891001  RH  015%=      5-min Rain = 0
KAM3 142202Z 24014KT 29/00 A2983 RMK A01 T028900-0  RH  015%=      5-min Rain = 0
KAM3 142203Z 24011KT 29/00 A2983 RMK A01 T02880001  RH  015%=      5-min Rain = 0
KAM3 142204Z 25014KT 29/M00 A2983 RMK A01 T02891001  RH  015%=      5-min Rain = 0
KAM3 142205Z 25016KT 29/M01 A2983 RMK A01 T02881005  RH  015%=      5-min Rain = 0
KAM3 142206Z 25015KT 29/M01 A2983 RMK A01 T02851007  RH  015%=      5-min Rain = 0
KAM3 142207Z 25016KT 28/M01 A2982 RMK A01 T02831008  RH  015%=      5-min Rain = 0
KAM3 142208Z 25013KT 28/M01 A2982 RMK A01 T02821006  RH  015%=      5-min Rain = 0
KAM3 142209Z 25012KT 28/M01 A2982 RMK A01 T02821005  RH  015%=      5-min Rain = 0
KAM3 142210Z 25012KT 28/M00 A2982 RMK A01 T02821004  RH  015%=      5-min Rain = 0
KAM3 142211Z 25012KT 28/M00 A2982 RMK A01 T02821003  RH  016%=      5-min Rain = 0
KAM3 142212Z 25012G18KT 28/M00 A2982 RMK A01 T02831003  RH  016%=      5-min Rain = 0
KAM3 142213Z 25014KT 28/M00 A2982 RMK A01 T02831003  RH  016%=      5-min Rain = 0
KAM3 142214Z 25014KT 28/M00 A2982 RMK A01 T02841001  RH  016%=      5-min Rain = 0
KAM3 142215Z 24014KT 28/M00 A2982 RMK A01 T02841003  RH  016%=      5-min Rain = 0
KAM3 142216Z 24013KT 28/M00 A2982 RMK A01 T02821002  RH  016%=      5-min Rain = 0
KAM3 142217Z 24013KT 28/M00 A2982 RMK A01 T02801002  RH  016%=      5-min Rain = 0
KAM3 142218Z 25009KT 28/00 A2982 RMK A01 T027800-0  RH  016%=      5-min Rain = 0
KAM3 142219Z 25010KT 28/00 A2982 RMK A01 T02770001  RH  017%=      5-min Rain = 0
KAM3 142220Z 25010KT 28/00 A2982 RMK A01 T02760001  RH  017%=      5-min Rain = 0
KAM3 142221Z 25010KT 28/00 A2982 RMK A01 T02750002  RH  017%=      5-min Rain = 0
KAM3 142222Z 25010KT 28/00 A2982 RMK A01 T02750002  RH  017%=      5-min Rain = 0
KAM3 142223Z 25012KT 27/M00 A2982 RMK A01 T02741001  RH  017%=      5-min Rain = 0
KAM3 142224Z 25011KT 27/M00 A2982 RMK A01 T02731001  RH  017%=      5-min Rain = 0
KAM3 142225Z 24010KT 27/M00 A2982 RMK A01 T02721001  RH  017%=      5-min Rain = 0
KAM3 142226Z 25010KT 27/00 A2982 RMK A01 T027200-0  RH  017%=      5-min Rain = 0
KAM3 142227Z 24010KT 27/00 A2982 RMK A01 T027000-0  RH  017%=      5-min Rain = 0
KAM3 142228Z 24009KT 27/00 A2982 RMK A01 T02700000  RH  017%=      5-min Rain = 0
KAM3 142229Z 24007KT 27/00 A2982 RMK A01 T02690002  RH  018%=      5-min Rain = 0
KAM3 142230Z 24007KT 27/00 A2982 RMK A01 T02680003  RH  018%=      5-min Rain = 0
KAM3 142231Z 24007KT 27/00 A2982 RMK A01 T02670003  RH  018%=      5-min Rain = 0
KAM3 142232Z 23008KT 27/00 A2982 RMK A01 T02660004  RH  018%=      5-min Rain = 0
KAM3 142233Z 24008KT 27/00 A2982 RMK A01 T02660004  RH  018%=      5-min Rain = 0
KAM3 142234Z 23010KT 27/00 A2982 RMK A01 T02650003  RH  018%=      5-min Rain = 0
KAM3 142235Z 23012KT 27/00 A2982 RMK A01 T02660000  RH  018%=      5-min Rain = 0
KAM3 142236Z 24012KT 27/M00 A2982 RMK A01 T02681001  RH  017%=      5-min Rain = 0
KAM3 142237Z 24011KT 27/M00 A2982 RMK A01 T02681002  RH  017%=      5-min Rain = 0
KAM3 142238Z 23010KT 27/M00 A2982 RMK A01 T02681002  RH  017%=      5-min Rain = 0
KAM3 142239Z 23011KT 27/M00 A2982 RMK A01 T02681003  RH  017%=      5-min Rain = 0
KAM3 142240Z 23010KT 27/M01 A2982 RMK A01 T02691005  RH  017%=      5-min Rain = 0
KAM3 142241Z 23010KT 27/M00 A2982 RMK A01 T02701004  RH  017%=      5-min Rain = 0
KAM3 142242Z 23012KT 27/M00 A2982 RMK A01 T02711004  RH  017%=      5-min Rain = 0
KAM3 142243Z 23011KT 27/M01 A2982 RMK A01 T02711005  RH  016%=      5-min Rain = 0
KAM3 142244Z 23011KT 27/M01 A2982 RMK A01 T02701005  RH  017%=      5-min Rain = 0
KAM3 142245Z 23009KT 27/M01 A2982 RMK A01 T02691005  RH  017%=      5-min Rain = 0
KAM3 142246Z 23010KT 27/M00 A2982 RMK A01 T02671003  RH  017%=      5-min Rain = 0
KAM3 142247Z 23010KT 27/M00 A2982 RMK A01 T02661004  RH  017%=      5-min Rain = 0
KAM3 142248Z 23009KT 27/M01 A2982 RMK A01 T02651005  RH  017%=      5-min Rain = 0
KAM3 142249Z 23009KT 27/M00 A2982 RMK A01 T02651003  RH  017%=      5-min Rain = 0
KAM3 142250Z 23009KT 26/M00 A2982 RMK A01 T02641003  RH  017%=      5-min Rain = 0
KAM3 142251Z 22008KT 26/M00 A2982 RMK A01 T02631003  RH  017%=      5-min Rain = 0
KAM3 142252Z 22008KT 26/M00 A2982 RMK A01 T02621003  RH  018%=      5-min Rain = 0
KAM3 142253Z 22008KT 26/M00 A2982 RMK A01 T02621002  RH  018%=      5-min Rain = 0
KAM3 142254Z 22007KT 26/M00 A2982 RMK A01 T02621002  RH  018%=      5-min Rain = 0
KAM3 142255Z 22008KT 26/M00 A2982 RMK A01 T02621001  RH  018%=      5-min Rain = 0
KAM3 142256Z 22008KT 26/M00 A2982 RMK A01 T02611001  RH  018%=      5-min Rain = 0
KAM3 142257Z 22008KT 26/M00 A2982 RMK A01 T02601001  RH  018%=      5-min Rain = 0
KAM3 142258Z 22008KT 26/M00 A2982 RMK A01 T02591001  RH  018%=      5-min Rain = 0
KAM3 142259Z 22008KT 26/M00 A2982 RMK A01 T02581001  RH  018%=      5-min Rain = 0
KAM3 142300Z 21007KT 26/M00 A2982 RMK A01 T02571001  RH  018%=      5-min Rain = 0
KAM3 142301Z 21007KT 26/00 A2982 RMK A01 T025600-0  RH  019%=      5-min Rain = 0
KAM3 142302Z 21007KT 26/00 A2982 RMK A01 T02560000  RH  019%=      5-min Rain = 0
KAM3 142303Z 21007KT 26/00 A2982 RMK A01 T02550000  RH  019%=      5-min Rain = 0
KAM3 142304Z 21007KT 25/00 A2982 RMK A01 T02540001  RH  019%=      5-min Rain = 0
KAM3 142305Z 21007KT 25/00 A2982 RMK A01 T02520001  RH  019%=      5-min Rain = 0
KAM3 142306Z 21007KT 25/00 A2981 RMK A01 T02510002  RH  019%=      5-min Rain = 0
KAM3 142307Z 21007KT 25/00 A2981 RMK A01 T02510002  RH  019%=      5-min Rain = 0
KAM3 142308Z 21007KT 25/00 A2981 RMK A01 T02500002  RH  020%=      5-min Rain = 0
KAM3 142309Z 21007KT 25/00 A2981 RMK A01 T02500002  RH  020%=      5-min Rain = 0
KAM3 142310Z 21008KT 25/00 A2981 RMK A01 T02500002  RH  020%=      5-min Rain = 0
KAM3 142311Z 21008KT 25/00 A2981 RMK A01 T02490003  RH  020%=      5-min Rain = 0
KAM3 142312Z 21008KT 25/00 A2981 RMK A01 T02480002  RH  020%=      5-min Rain = 0
KAM3 142313Z 21008KT 25/00 A2981 RMK A01 T02470003  RH  020%=      5-min Rain = 0
KAM3 142314Z 21007KT 25/00 A2981 RMK A01 T02450002  RH  020%=      5-min Rain = 0
KAM3 142315Z 20007KT 24/00 A2981 RMK A01 T02440002  RH  020%=      5-min Rain = 0
KAM3 142316Z 20008KT 24/00 A2981 RMK A01 T02420002  RH  020%=      5-min Rain = 0
KAM3 142317Z 20008KT 24/00 A2981 RMK A01 T02410001  RH  021%=      5-min Rain = 0
KAM3 142318Z 21008KT 24/00 A2981 RMK A01 T02400001  RH  021%=      5-min Rain = 0
KAM3 142319Z 20007KT 24/00 A2981 RMK A01 T02380001  RH  021%=      5-min Rain = 0
KAM3 142320Z 20008KT 24/00 A2981 RMK A01 T02370001  RH  021%=      5-min Rain = 0
KAM3 142321Z 20008KT 24/00 A2981 RMK A01 T02360000  RH  021%=      5-min Rain = 0
KAM3 142322Z 20007KT 24/00 A2981 RMK A01 T023500-0  RH  021%=      5-min Rain = 0
KAM3 142323Z 20007KT 23/M00 A2982 RMK A01 T02341001  RH  021%=      5-min Rain = 0
KAM3 142324Z 20007KT 23/M00 A2982 RMK A01 T02331001  RH  021%=      5-min Rain = 0
KAM3 142325Z 20008KT 23/M00 A2982 RMK A01 T02321001  RH  021%=      5-min Rain = 0
KAM3 142326Z 20008KT 23/M00 A2982 RMK A01 T02311001  RH  021%=      5-min Rain = 0
KAM3 142327Z 20008KT 23/M00 A2982 RMK A01 T02301001  RH  022%=      5-min Rain = 0
KAM3 142328Z 20008KT 23/00 A2982 RMK A01 T023000-0  RH  022%=      5-min Rain = 0
KAM3 142329Z 20008KT 23/M00 A2982 RMK A01 T02291001  RH  022%=      5-min Rain = 0
KAM3 142330Z 20008KT 23/M00 A2982 RMK A01 T02281001  RH  022%=      5-min Rain = 0
KAM3 142331Z 20009KT 23/00 A2982 RMK A01 T022800-0  RH  022%=      5-min Rain = 0
KAM3 142332Z 20008KT 23/00 A2982 RMK A01 T022700-0  RH  022%=      5-min Rain = 0
KAM3 142333Z 20008KT 23/00 A2982 RMK A01 T022700-0  RH  022%=      5-min Rain = 0
KAM3 142334Z 20008KT 23/00 A2982 RMK A01 T022600-0  RH  022%=      5-min Rain = 0
KAM3 142335Z 20008KT 23/00 A2982 RMK A01 T022600-0  RH  022%=      5-min Rain = 0
KAM3 142336Z 20008KT 23/00 A2982 RMK A01 T022600-0  RH  022%=      5-min Rain = 0
KAM3 142337Z 20008KT 23/M00 A2982 RMK A01 T02261001  RH  022%=      5-min Rain = 0
KAM3 142338Z 20008KT 23/M00 A2982 RMK A01 T02251001  RH  022%=      5-min Rain = 0
KAM3 142339Z 20009KT 23/M00 A2982 RMK A01 T02251001  RH  022%=      5-min Rain = 0
KAM3 142340Z 20009KT 22/M00 A2982 RMK A01 T02241001  RH  022%=      5-min Rain = 0
KAM3 142341Z 20009KT 22/M00 A2982 RMK A01 T02231001  RH  023%=      5-min Rain = 0
KAM3 142342Z 20009KT 22/M00 A2982 RMK A01 T02231001  RH  023%=      5-min Rain = 0
KAM3 142343Z 20009KT 22/M00 A2982 RMK A01 T02221001  RH  023%=      5-min Rain = 0
KAM3 142344Z 20010KT 22/M00 A2982 RMK A01 T02211001  RH  023%=      5-min Rain = 0
KAM3 142345Z 19009KT 22/00 A2982 RMK A01 T022100-0  RH  023%=      5-min Rain = 0
KAM3 142346Z 19010KT 22/00 A2982 RMK A01 T022100-0  RH  023%=      5-min Rain = 0
KAM3 142347Z 19009KT 22/00 A2982 RMK A01 T02210000  RH  023%=      5-min Rain = 0
KAM3 142348Z 19009KT 22/00 A2982 RMK A01 T02200001  RH  023%=      5-min Rain = 0
KAM3 142349Z 19009KT 22/00 A2982 RMK A01 T02200001  RH  023%=      5-min Rain = 0
KAM3 142350Z 20009KT 22/00 A2982 RMK A01 T02200002  RH  023%=      5-min Rain = 0
KAM3 142351Z 20008KT 22/00 A2982 RMK A01 T02200002  RH  023%=      5-min Rain = 0
KAM3 142352Z 20008KT 22/00 A2982 RMK A01 T02180002  RH  024%=      5-min Rain = 0
KAM3 142353Z 20009KT 22/00 A2982 RMK A01 T02180002  RH  024%=      5-min Rain = 0
KAM3 142354Z 20009KT 22/00 A2982 RMK A01 T02170002  RH  024%=      5-min Rain = 0
KAM3 142355Z 21008KT 22/00 A2982 RMK A01 T02160003  RH  024%=      5-min Rain = 0
KAM3 142356Z 21008KT 22/00 A2982 RMK A01 T02150002  RH  024%=      5-min Rain = 0
KAM3 142357Z 21008KT 21/00 A2982 RMK A01 T02140003  RH  024%=      5-min Rain = 0
KAM3 142358Z 20008KT 21/00 A2982 RMK A01 T02110002  RH  025%=      5-min Rain = 0
KAM3 142359Z 20008KT 21/00 A2982 RMK A01 T02090002  RH  025%=      5-min Rain = 0
KAM3 150000Z 20009KT 21/00 A2982 RMK A01 T02070002  RH  025%=      5-min Rain = 0
KAM3 150001Z 20009KT 21/00 A2982 RMK A01 T02050002  RH  026%=      5-min Rain = 0
KAM3 150002Z 20009KT 20/00 A2982 RMK A01 T02040002  RH  026%=      5-min Rain = 0
KAM3 150003Z 20009KT 20/00 A2982 RMK A01 T02030003  RH  026%=      5-min Rain = 0
KAM3 150004Z 20009KT 20/00 A2982 RMK A01 T02030003  RH  026%=      5-min Rain = 0
KAM3 150005Z 21009KT 20/00 A2982 RMK A01 T02020003  RH  026%=      5-min Rain = 0
KAM3 150006Z 20009KT 20/00 A2982 RMK A01 T02010003  RH  027%=      5-min Rain = 0
KAM3 150007Z 20008KT 20/00 A2982 RMK A01 T02010003  RH  027%=      5-min Rain = 0
KAM3 150008Z 20009KT 20/00 A2982 RMK A01 T01990003  RH  027%=      5-min Rain = 0
KAM3 150009Z 21008KT 20/00 A2982 RMK A01 T01980003  RH  027%=      5-min Rain = 0
KAM3 150010Z 21008KT 20/00 A2982 RMK A01 T01970003  RH  027%=      5-min Rain = 0
KAM3 150011Z 20008KT 20/00 A2982 RMK A01 T01950003  RH  027%=      5-min Rain = 0
KAM3 150012Z 20009KT 19/00 A2982 RMK A01 T01940003  RH  028%=      5-min Rain = 0
KAM3 150013Z 21009KT 19/00 A2982 RMK A01 T01930003  RH  028%=      5-min Rain = 0
KAM3 150014Z 21008KT 19/00 A2982 RMK A01 T01940002  RH  028%=      5-min Rain = 0
KAM3 150015Z 20008KT 19/00 A2982 RMK A01 T01930003  RH  028%=      5-min Rain = 0
KAM3 150016Z 21008KT 19/00 A2982 RMK A01 T01930003  RH  028%=      5-min Rain = 0
KAM3 150017Z 21008KT 19/00 A2982 RMK A01 T01910003  RH  028%=      5-min Rain = 0
KAM3 150018Z 21008KT 19/00 A2982 RMK A01 T01900003  RH  028%=      5-min Rain = 0
KAM3 150019Z 21008KT 19/00 A2982 RMK A01 T01900003  RH  028%=      5-min Rain = 0
KAM3 150020Z 21008KT 19/00 A2982 RMK A01 T01890003  RH  029%=      5-min Rain = 0
KAM3 150021Z 21008KT 19/00 A2982 RMK A01 T01880003  RH  029%=      5-min Rain = 0
KAM3 150022Z 21008KT 19/00 A2982 RMK A01 T01880003  RH  029%=      5-min Rain = 0
KAM3 150023Z 21008KT 19/00 A2983 RMK A01 T01870002  RH  029%=      5-min Rain = 0
KAM3 150024Z 21008KT 19/00 A2983 RMK A01 T01870001  RH  029%=      5-min Rain = 0
KAM3 150025Z 21008KT 19/00 A2983 RMK A01 T01870001  RH  029%=      5-min Rain = 0
KAM3 150026Z 20009KT 19/00 A2983 RMK A01 T01860001  RH  029%=      5-min Rain = 0
KAM3 150027Z 20009KT 19/00 A2983 RMK A01 T01850001  RH  029%=      5-min Rain = 0
KAM3 150028Z 20008KT 19/00 A2983 RMK A01 T01850000  RH  029%=      5-min Rain = 0
KAM3 150029Z 20008KT 18/00 A2983 RMK A01 T018400-0  RH  029%=      5-min Rain = 0
KAM3 150030Z 20008KT 18/00 A2983 RMK A01 T018400-0  RH  029%=      5-min Rain = 0
KAM3 150031Z 20008KT 18/M00 A2983 RMK A01 T01841001  RH  029%=      5-min Rain = 0
KAM3 150032Z 20008KT 18/M00 A2983 RMK A01 T01841002  RH  029%=      5-min Rain = 0
KAM3 150033Z 20009KT 18/M00 A2983 RMK A01 T01841002  RH  028%=      5-min Rain = 0
KAM3 150034Z 20009KT 18/M00 A2983 RMK A01 T01841003  RH  028%=      5-min Rain = 0
KAM3 150035Z 20009KT 18/M00 A2983 RMK A01 T01841004  RH  028%=      5-min Rain = 0
KAM3 150036Z 21009KT 18/M00 A2983 RMK A01 T01841004  RH  028%=      5-min Rain = 0
KAM3 150037Z 21009KT 18/M00 A2983 RMK A01 T01841004  RH  028%=      5-min Rain = 0
KAM3 150038Z 21009KT 18/M01 A2983 RMK A01 T01831005  RH  028%=      5-min Rain = 0
KAM3 150039Z 21009KT 18/M01 A2983 RMK A01 T01831005  RH  028%=      5-min Rain = 0
KAM3 150040Z 20010KT 18/M01 A2983 RMK A01 T01821005  RH  028%=      5-min Rain = 0
KAM3 150041Z 20010KT 18/M01 A2983 RMK A01 T01811006  RH  028%=      5-min Rain = 0
KAM3 150042Z 20010KT 18/M01 A2983 RMK A01 T01811007  RH  028%=      5-min Rain = 0
KAM3 150043Z 20010KT 18/M01 A2983 RMK A01 T01811008  RH  028%=      5-min Rain = 0
KAM3 150044Z 20011KT 18/M01 A2983 RMK A01 T01821008  RH  028%=      5-min Rain = 0
KAM3 150045Z 20011KT 18/M01 A2983 RMK A01 T01831009  RH  027%=      5-min Rain = 0
KAM3 150046Z 20011KT 18/M01 A2983 RMK A01 T01841009  RH  027%=      5-min Rain = 0
KAM3 150047Z 21010KT 19/M01 A2983 RMK A01 T01861008  RH  027%=      5-min Rain = 0
KAM3 150048Z 21010KT 19/M01 A2983 RMK A01 T01851008  RH  027%=      5-min Rain = 0
KAM3 150049Z 21010KT 18/M01 A2983 RMK A01 T01841007  RH  027%=      5-min Rain = 0
KAM3 150050Z 21010KT 18/M01 A2983 RMK A01 T01821007  RH  028%=      5-min Rain = 0
KAM3 150051Z 21010KT 18/M01 A2983 RMK A01 T01811007  RH  028%=      5-min Rain = 0
KAM3 150052Z 21010KT 18/M01 A2983 RMK A01 T01801007  RH  028%=      5-min Rain = 0
KAM3 150053Z 21010KT 18/M01 A2983 RMK A01 T01801006  RH  028%=      5-min Rain = 0
KAM3 150054Z 21010KT 18/M01 A2983 RMK A01 T01791006  RH  028%=      5-min Rain = 0
KAM3 150055Z 21011KT 18/M01 A2983 RMK A01 T01791006  RH  029%=      5-min Rain = 0
KAM3 150056Z 21010KT 18/M01 A2983 RMK A01 T01781006  RH  029%=      5-min Rain = 0
KAM3 150057Z 21010KT 18/M01 A2983 RMK A01 T01781006  RH  029%=      5-min Rain = 0
KAM3 150058Z 21010KT 18/M01 A2983 RMK A01 T01771006  RH  029%=      5-min Rain = 0
KAM3 150059Z 21010KT 18/M01 A2983 RMK A01 T01771006  RH  029%=      5-min Rain = 0
KAM3 150100Z 21010KT 18/M01 A2983 RMK A01 T01761006  RH  029%=      5-min Rain = 0
KAM3 150101Z 21010KT 18/M01 A2983 RMK A01 T01751006  RH  029%=      5-min Rain = 0
KAM3 150102Z 21010KT 18/M01 A2983 RMK A01 T01751006  RH  029%=      5-min Rain = 0
KAM3 150103Z 21010KT 18/M01 A2983 RMK A01 T01751006  RH  029%=      5-min Rain = 0
KAM3 150104Z 21010KT 17/M01 A2983 RMK A01 T01741006  RH  029%=      5-min Rain = 0
KAM3 150105Z 21011KT 17/M01 A2983 RMK A01 T01741006  RH  029%=      5-min Rain = 0
KAM3 150106Z 21011KT 17/M01 A2983 RMK A01 T01741007  RH  029%=      5-min Rain = 0
KAM3 150107Z 21010KT 18/M01 A2983 RMK A01 T01751006  RH  029%=      5-min Rain = 0
KAM3 150108Z 21010KT 17/M01 A2983 RMK A01 T01741006  RH  029%=      5-min Rain = 0
KAM3 150109Z 20010KT 17/M01 A2983 RMK A01 T01741006  RH  029%=      5-min Rain = 0
KAM3 150110Z 20010KT 17/M01 A2983 RMK A01 T01741006  RH  029%=      5-min Rain = 0
KAM3 150111Z 20010KT 17/M01 A2983 RMK A01 T01741007  RH  029%=      5-min Rain = 0
KAM3 150112Z 20011KT 18/M01 A2983 RMK A01 T01751007  RH  029%=      5-min Rain = 0
KAM3 150113Z 20011KT 18/M01 A2983 RMK A01 T01761008  RH  029%=      5-min Rain = 0
KAM3 150114Z 20010KT 18/M01 A2983 RMK A01 T01781007  RH  028%=      5-min Rain = 0
KAM3 150115Z 20010KT 18/M01 A2983 RMK A01 T01791008  RH  028%=      5-min Rain = 0
KAM3 150116Z 20011KT 18/M01 A2983 RMK A01 T01801007  RH  028%=      5-min Rain = 0
KAM3 150117Z 21011KT 18/M01 A2983 RMK A01 T01811008  RH  028%=      5-min Rain = 0
KAM3 150118Z 21010KT 18/M01 A2983 RMK A01 T01841007  RH  027%=      5-min Rain = 0
KAM3 150119Z 21010KT 19/M01 A2983 RMK A01 T01861007  RH  027%=      5-min Rain = 0
KAM3 150120Z 21010KT 19/M01 A2983 RMK A01 T01851006  RH  027%=      5-min Rain = 0
KAM3 150121Z 20010KT 19/M01 A2983 RMK A01 T01851006  RH  027%=      5-min Rain = 0
KAM3 150122Z 20010KT 19/M01 A2983 RMK A01 T01851006  RH  027%=      5-min Rain = 0
KAM3 150123Z 21010KT 19/M01 A2983 RMK A01 T01851006  RH  027%=      5-min Rain = 0
KAM3 150124Z 21010KT 19/M01 A2983 RMK A01 T01851006  RH  027%=      5-min Rain = 0
KAM3 150125Z 21010KT 19/M01 A2983 RMK A01 T01851006  RH  028%=      5-min Rain = 0
KAM3 150126Z 21010KT 18/M01 A2983 RMK A01 T01841006  RH  028%=      5-min Rain = 0
KAM3 150127Z 21010KT 18/M01 A2983 RMK A01 T01841006  RH  028%=      5-min Rain = 0
KAM3 150128Z 21011KT 18/M01 A2983 RMK A01 T01841006  RH  028%=      5-min Rain = 0
KAM3 150129Z 21011KT 18/M01 A2983 RMK A01 T01831006  RH  028%=      5-min Rain = 0
KAM3 150130Z 21011KT 18/M01 A2983 RMK A01 T01831006  RH  028%=      5-min Rain = 0
KAM3 150131Z 21011KT 18/M01 A2983 RMK A01 T01821006  RH  028%=      5-min Rain = 0
KAM3 150132Z 21011KT 18/M01 A2983 RMK A01 T01811007  RH  028%=      5-min Rain = 0
KAM3 150133Z 21012KT 18/M01 A2983 RMK A01 T01811007  RH  028%=      5-min Rain = 0
KAM3 150134Z 21011KT 18/M01 A2983 RMK A01 T01811007  RH  028%=      5-min Rain = 0
KAM3 150135Z 21012KT 18/M01 A2983 RMK A01 T01801007  RH  028%=      5-min Rain = 0
KAM3 150136Z 21012KT 18/M01 A2983 RMK A01 T01791007  RH  028%=      5-min Rain = 0
KAM3 150137Z 22012KT 18/M01 A2983 RMK A01 T01791007  RH  028%=      5-min Rain = 0
KAM3 150138Z 22012KT 18/M01 A2983 RMK A01 T01791008  RH  028%=      5-min Rain = 0
KAM3 150139Z 22012KT 18/M01 A2983 RMK A01 T01781009  RH  028%=      5-min Rain = 0
KAM3 150140Z 22012KT 18/M01 A2983 RMK A01 T01791009  RH  028%=      5-min Rain = 0
KAM3 150141Z 22011KT 18/M01 A2983 RMK A01 T01791010  RH  028%=      5-min Rain = 0
KAM3 150142Z 22012KT 18/M01 A2983 RMK A01 T01791010  RH  028%=      5-min Rain = 0
KAM3 150143Z 22012KT 18/M01 A2983 RMK A01 T01791011  RH  027%=      5-min Rain = 0
KAM3 150144Z 22012KT 18/M01 A2983 RMK A01 T01801012  RH  027%=      5-min Rain = 0
KAM3 150145Z 22012KT 18/M01 A2983 RMK A01 T01811013  RH  027%=      5-min Rain = 0
KAM3 150146Z 22012KT 18/M01 A2983 RMK A01 T01811013  RH  027%=      5-min Rain = 0
KAM3 150147Z 22012KT 18/M01 A2983 RMK A01 T01811014  RH  027%=      5-min Rain = 0
KAM3 150148Z 22011KT 18/M02 A2983 RMK A01 T01811015  RH  026%=      5-min Rain = 0
KAM3 150149Z 22011KT 18/M01 A2983 RMK A01 T01811014  RH  026%=      5-min Rain = 0
KAM3 150150Z 22012KT 18/M02 A2983 RMK A01 T01811015  RH  026%=      5-min Rain = 0
KAM3 150151Z 22011KT 18/M01 A2983 RMK A01 T01811014  RH  027%=      5-min Rain = 0
KAM3 150152Z 22010KT 18/M01 A2983 RMK A01 T01791013  RH  027%=      5-min Rain = 0
KAM3 150153Z 21011KT 18/M01 A2983 RMK A01 T01771012  RH  028%=      5-min Rain = 0
KAM3 150154Z 21010KT 18/M01 A2983 RMK A01 T01751013  RH  028%=      5-min Rain = 0
KAM3 150155Z 21010KT 17/M01 A2983 RMK A01 T01741012  RH  028%=      5-min Rain = 0
KAM3 150156Z 21010KT 17/M01 A2983 RMK A01 T01721012  RH  029%=      5-min Rain = 0
KAM3 150157Z 22011KT 17/M01 A2983 RMK A01 T01721012  RH  029%=      5-min Rain = 0
KAM3 150158Z 22011KT 17/M01 A2983 RMK A01 T01731012  RH  028%=      5-min Rain = 0
KAM3 150159Z 22011KT 17/M01 A2983 RMK A01 T01741012  RH  028%=      5-min Rain = 0
KAM3 150200Z 22010KT 18/M01 A2983 RMK A01 T01751012  RH  028%=      5-min Rain = 0
KAM3 150201Z 22011KT 18/M01 A2983 RMK A01 T01761012  RH  028%=      5-min Rain = 0
KAM3 150202Z 21011KT 18/M01 A2983 RMK A01 T01771011  RH  028%=      5-min Rain = 0
KAM3 150203Z 21011KT 18/M01 A2983 RMK A01 T01771011  RH  028%=      5-min Rain = 0
KAM3 150204Z 21011KT 18/M01 A2983 RMK A01 T01771011  RH  028%=      5-min Rain = 0
KAM3 150205Z 21011KT 18/M01 A2983 RMK A01 T01771010  RH  028%=      5-min Rain = 0
KAM3 150206Z 21011KT 18/M01 A2983 RMK A01 T01771010  RH  028%=      5-min Rain = 0
KAM3 150207Z 21010KT 18/M01 A2983 RMK A01 T01761010  RH  028%=      5-min Rain = 0
KAM3 150208Z 21010KT 18/M01 A2983 RMK A01 T01751010  RH  028%=      5-min Rain = 0
KAM3 150209Z 21010KT 17/M01 A2983 RMK A01 T01741010  RH  029%=      5-min Rain = 0
KAM3 150210Z 22011KT 17/M01 A2983 RMK A01 T01731009  RH  029%=      5-min Rain = 0
KAM3 150211Z 21010KT 17/M01 A2983 RMK A01 T01721008  RH  029%=      5-min Rain = 0
KAM3 150212Z 22011KT 17/M01 A2983 RMK A01 T01721008  RH  029%=      5-min Rain = 0
KAM3 150213Z 22011KT 17/M01 A2983 RMK A01 T01731007  RH  029%=      5-min Rain = 0
KAM3 150214Z 22010KT 17/M01 A2983 RMK A01 T01741006  RH  030%=      5-min Rain = 0
KAM3 150215Z 22010KT 17/M01 A2983 RMK A01 T01741005  RH  030%=      5-min Rain = 0
KAM3 150216Z 21009KT 17/M01 A2983 RMK A01 T01741005  RH  030%=      5-min Rain = 0
KAM3 150217Z 22010KT 17/M00 A2983 RMK A01 T01741004  RH  030%=      5-min Rain = 0
KAM3 150218Z 22010KT 17/M00 A2983 RMK A01 T01731004  RH  030%=      5-min Rain = 0
KAM3 150219Z 22009KT 17/M00 A2983 RMK A01 T01731004  RH  030%=      5-min Rain = 0
KAM3 150220Z 22010KT 17/M00 A2983 RMK A01 T01721004  RH  030%=      5-min Rain = 0
KAM3 150221Z 22009KT 17/M00 A2984 RMK A01 T01711004  RH  031%=      5-min Rain = 0
KAM3 150222Z 22009KT 17/M00 A2984 RMK A01 T01711003  RH  031%=      5-min Rain = 0
KAM3 150223Z 23008KT 17/M00 A2984 RMK A01 T01701003  RH  031%=      5-min Rain = 0
KAM3 150224Z 24007KT 17/M00 A2984 RMK A01 T01701003  RH  031%=      5-min Rain = 0
KAM3 150225Z 28004KT 17/M00 A2984 RMK A01 T01681003  RH  031%=      5-min Rain = 0
KAM3 150226Z 30003KT 17/M01 A2984 RMK A01 T01651005  RH  031%=      5-min Rain = 0
KAM3 150227Z 29003KT 16/M01 A2984 RMK A01 T01621007  RH  032%=      5-min Rain = 0
KAM3 150228Z 27004KT 16/M01 A2984 RMK A01 T01581008  RH  032%=      5-min Rain = 0
KAM3 150229Z 26005KT 16/M01 A2984 RMK A01 T01561008  RH  032%=      5-min Rain = 0
KAM3 150230Z 25006KT 16/M01 A2984 RMK A01 T01561006  RH  033%=      5-min Rain = 0
KAM3 150231Z 24007KT 16/M01 A2984 RMK A01 T01591005  RH  033%=      5-min Rain = 0
KAM3 150232Z 24007KT 16/M00 A2984 RMK A01 T01621003  RH  032%=      5-min Rain = 0
KAM3 150233Z 23006KT 17/M00 A2984 RMK A01 T01651003  RH  032%=      5-min Rain = 0
KAM3 150234Z 23007KT 17/M00 A2984 RMK A01 T01661002  RH  032%=      5-min Rain = 0
KAM3 150235Z 22007KT 17/M00 A2984 RMK A01 T01671002  RH  032%=      5-min Rain = 0
KAM3 150236Z 22008KT 17/M00 A2984 RMK A01 T01671002  RH  032%=      5-min Rain = 0
KAM3 150237Z 22007KT 17/M00 A2984 RMK A01 T01691001  RH  032%=      5-min Rain = 0
KAM3 150238Z 22007KT 17/M00 A2984 RMK A01 T01671003  RH  031%=      5-min Rain = 0
KAM3 150239Z 22008KT 16/M00 A2984 RMK A01 T01641004  RH  032%=      5-min Rain = 0
KAM3 150240Z 22009KT 16/M00 A2984 RMK A01 T01611004  RH  032%=      5-min Rain = 0
KAM3 150241Z 22008KT 16/M00 A2984 RMK A01 T01611003  RH  033%=      5-min Rain = 0
KAM3 150242Z 23009KT 16/M00 A2984 RMK A01 T01611003  RH  033%=      5-min Rain = 0
KAM3 150243Z 22009KT 16/M00 A2984 RMK A01 T01591003  RH  033%=      5-min Rain = 0
KAM3 150244Z 22009KT 16/M00 A2984 RMK A01 T01571002  RH  034%=      5-min Rain = 0
KAM3 150245Z 22009KT 16/M00 A2984 RMK A01 T01561002  RH  034%=      5-min Rain = 0
KAM3 150246Z 22010KT 16/M00 A2984 RMK A01 T01551001  RH  034%=      5-min Rain = 0
KAM3 150247Z 21009KT 15/M00 A2984 RMK A01 T01531001  RH  035%=      5-min Rain = 0
KAM3 150248Z 21009KT 15/00 A2984 RMK A01 T015200-0  RH  035%=      5-min Rain = 0
KAM3 150249Z 21009KT 15/M00 A2984 RMK A01 T01511001  RH  036%=      5-min Rain = 0
KAM3 150250Z 21009KT 15/M00 A2984 RMK A01 T01501001  RH  036%=      5-min Rain = 0
KAM3 150251Z 21010KT 15/M00 A2984 RMK A01 T01491001  RH  036%=      5-min Rain = 0
KAM3 150252Z 21010KT 15/00 A2984 RMK A01 T01490000  RH  036%=      5-min Rain = 0
KAM3 150253Z 21010KT 15/00 A2984 RMK A01 T01490000  RH  036%=      5-min Rain = 0
KAM3 150254Z 21011KT 15/00 A2984 RMK A01 T01490000  RH  036%=      5-min Rain = 0
KAM3 150255Z 21011KT 15/00 A2984 RMK A01 T01490001  RH  036%=      5-min Rain = 0
KAM3 150256Z 21011KT 15/00 A2983 RMK A01 T01500001  RH  036%=      5-min Rain = 0
KAM3 150257Z 21012KT 15/00 A2983 RMK A01 T01500001  RH  036%=      5-min Rain = 0
KAM3 150258Z 21012KT 15/00 A2983 RMK A01 T01500001  RH  036%=      5-min Rain = 0
KAM3 150259Z 21012KT 15/00 A2983 RMK A01 T01510002  RH  036%=      5-min Rain = 0
KAM3 150300Z 21012KT 15/00 A2983 RMK A01 T01510002  RH  036%=      5-min Rain = 0
KAM3 150301Z 21012KT 15/00 A2983 RMK A01 T01510003  RH  036%=      5-min Rain = 0
KAM3 150302Z 21011KT 15/00 A2983 RMK A01 T01510003  RH  036%=      5-min Rain = 0
KAM3 150303Z 21012KT 15/00 A2984 RMK A01 T01510003  RH  037%=      5-min Rain = 0
KAM3 150304Z 21012KT 15/00 A2984 RMK A01 T01510003  RH  037%=      5-min Rain = 0
KAM3 150305Z 21011KT 15/00 A2984 RMK A01 T01510003  RH  037%=      5-min Rain = 0
KAM3 150306Z 21011KT 15/00 A2984 RMK A01 T01500003  RH  036%=      5-min Rain = 0
KAM3 150307Z 21011KT 15/00 A2984 RMK A01 T01510003  RH  036%=      5-min Rain = 0
KAM3 150308Z 21011KT 15/00 A2984 RMK A01 T01510003  RH  036%=      5-min Rain = 0
KAM3 150309Z 21011KT 15/00 A2984 RMK A01 T01510003  RH  036%=      5-min Rain = 0
KAM3 150310Z 21011KT 15/00 A2984 RMK A01 T01490002  RH  037%=      5-min Rain = 0
KAM3 150311Z 21011KT 15/00 A2983 RMK A01 T01490002  RH  037%=      5-min Rain = 0
KAM3 150312Z 21012KT 15/00 A2983 RMK A01 T01480002  RH  037%=      5-min Rain = 0
KAM3 150313Z 21011KT 15/00 A2983 RMK A01 T01480002  RH  037%=      5-min Rain = 0
KAM3 150314Z 21011KT 15/00 A2983 RMK A01 T01470002  RH  037%=      5-min Rain = 0
KAM3 150315Z 22011KT 15/00 A2983 RMK A01 T01460002  RH  037%=      5-min Rain = 0
KAM3 150316Z 22011KT 15/00 A2983 RMK A01 T01450003  RH  038%=      5-min Rain = 0
KAM3 150317Z 22011KT 14/00 A2984 RMK A01 T01440003  RH  038%=      5-min Rain = 0
KAM3 150318Z 22011KT 14/00 A2984 RMK A01 T01430002  RH  038%=      5-min Rain = 0
KAM3 150319Z 22011KT 14/00 A2984 RMK A01 T01420002  RH  038%=      5-min Rain = 0
KAM3 150320Z 22010KT 14/00 A2984 RMK A01 T01440001  RH  038%=      5-min Rain = 0
KAM3 150321Z 22010KT 15/00 A2984 RMK A01 T01460001  RH  037%=      5-min Rain = 0
KAM3 150322Z 22009KT 15/00 A2984 RMK A01 T01480001  RH  037%=      5-min Rain = 0
KAM3 150323Z 22009KT 15/00 A2984 RMK A01 T01500002  RH  036%=      5-min Rain = 0
KAM3 150324Z 23008KT 15/00 A2984 RMK A01 T01510001  RH  036%=      5-min Rain = 0
KAM3 150325Z 23008KT 15/00 A2984 RMK A01 T01530001  RH  036%=      5-min Rain = 0
KAM3 150326Z 25006KT 15/00 A2984 RMK A01 T01530001  RH  035%=      5-min Rain = 0
KAM3 150327Z 28004KT 15/00 A2984 RMK A01 T01530001  RH  035%=      5-min Rain = 0
KAM3 150328Z 25005KT 15/M00 A2984 RMK A01 T01481001  RH  036%=      5-min Rain = 0
KAM3 150329Z 24007KT 14/M00 A2984 RMK A01 T01421001  RH  037%=      5-min Rain = 0
KAM3 150330Z 24008KT 14/00 A2984 RMK A01 T014100-0  RH  038%=      5-min Rain = 0
KAM3 150331Z 24010KT 14/00 A2984 RMK A01 T01440001  RH  038%=      5-min Rain = 0
KAM3 150332Z 23010KT 15/00 A2984 RMK A01 T01470002  RH  037%=      5-min Rain = 0
KAM3 150333Z 24009KT 15/00 A2984 RMK A01 T01480002  RH  037%=      5-min Rain = 0
KAM3 150334Z 25008KT 15/00 A2984 RMK A01 T01460001  RH  037%=      5-min Rain = 0
KAM3 150335Z 24009KT 14/00 A2984 RMK A01 T014000-0  RH  038%=      5-min Rain = 0
KAM3 150336Z 25009KT 14/00 A2984 RMK A01 T013600-0  RH  039%=      5-min Rain = 0
KAM3 150337Z 25009KT 13/00 A2985 RMK A01 T013300-0  RH  040%=      5-min Rain = 0
KAM3 150338Z 25009KT 13/00 A2985 RMK A01 T013000-0  RH  041%=      5-min Rain = 0
KAM3 150339Z 25009KT 13/M00 A2985 RMK A01 T01281001  RH  041%=      5-min Rain = 0
KAM3 150340Z 25010KT 13/M00 A2985 RMK A01 T01251001  RH  042%=      5-min Rain = 0
KAM3 150341Z 25010KT 12/00 A2985 RMK A01 T012400-0  RH  042%=      5-min Rain = 0
KAM3 150342Z 25010KT 13/00 A2984 RMK A01 T01260001  RH  042%=      5-min Rain = 0
KAM3 150343Z 25011KT 13/00 A2985 RMK A01 T01280002  RH  042%=      5-min Rain = 0
KAM3 150344Z 24011KT 13/00 A2984 RMK A01 T01300002  RH  042%=      5-min Rain = 0
KAM3 150345Z 24011KT 13/00 A2984 RMK A01 T01310002  RH  041%=      5-min Rain = 0
KAM3 150346Z 24010KT 13/00 A2985 RMK A01 T01320002  RH  041%=      5-min Rain = 0
KAM3 150347Z 24011KT 13/00 A2985 RMK A01 T01320003  RH  041%=      5-min Rain = 0
KAM3 150348Z 24010KT 13/00 A2985 RMK A01 T01330003  RH  041%=      5-min Rain = 0
KAM3 150349Z 24010KT 13/00 A2985 RMK A01 T01330003  RH  041%=      5-min Rain = 0
KAM3 150350Z 24010KT 13/00 A2985 RMK A01 T01330003  RH  041%=      5-min Rain = 0
KAM3 150351Z 23010KT 13/00 A2985 RMK A01 T01330003  RH  041%=      5-min Rain = 0
KAM3 150352Z 23009KT 13/00 A2985 RMK A01 T01310002  RH  041%=      5-min Rain = 0
KAM3 150353Z 23010KT 13/00 A2985 RMK A01 T01290002  RH  042%=      5-min Rain = 0
KAM3 150354Z 23009KT 13/00 A2985 RMK A01 T01270003  RH  042%=      5-min Rain = 0
KAM3 150355Z 23009KT 13/00 A2985 RMK A01 T01270003  RH  043%=      5-min Rain = 0
KAM3 150356Z 23009KT 13/00 A2985 RMK A01 T01270004  RH  043%=      5-min Rain = 0
KAM3 150357Z 23009KT 13/00 A2985 RMK A01 T01280004  RH  043%=      5-min Rain = 0
KAM3 150358Z 23008KT 13/01 A2985 RMK A01 T01290005  RH  043%=      5-min Rain = 0
KAM3 150359Z 23008KT 13/01 A2985 RMK A01 T01290005  RH  043%=      5-min Rain = 0
KAM3 150400Z 23008KT 13/01 A2985 RMK A01 T01290005  RH  042%=      5-min Rain = 0
KAM3 150401Z 23009KT 13/01 A2985 RMK A01 T01300005  RH  042%=      5-min Rain = 0
KAM3 150402Z 23008KT 13/01 A2985 RMK A01 T01290005  RH  042%=      5-min Rain = 0
KAM3 150403Z 23009KT 13/01 A2985 RMK A01 T01300005  RH  042%=      5-min Rain = 0
KAM3 150404Z 23009KT 13/01 A2985 RMK A01 T01300005  RH  042%=      5-min Rain = 0
KAM3 150405Z 23009KT 13/01 A2985 RMK A01 T01310005  RH  042%=      5-min Rain = 0
KAM3 150406Z 23009KT 13/01 A2985 RMK A01 T01310005  RH  042%=      5-min Rain = 0
KAM3 150407Z 23009KT 13/01 A2985 RMK A01 T01320005  RH  042%=      5-min Rain = 0
KAM3 150408Z 23008KT 13/01 A2985 RMK A01 T01320005  RH  042%=      5-min Rain = 0
KAM3 150409Z 23008KT 13/01 A2985 RMK A01 T01320006  RH  042%=      5-min Rain = 0
KAM3 150410Z 23008KT 13/01 A2985 RMK A01 T01320006  RH  042%=      5-min Rain = 0
KAM3 150411Z 23008KT 13/01 A2985 RMK A01 T01320006  RH  042%=      5-min Rain = 0
KAM3 150412Z 23008KT 13/01 A2985 RMK A01 T01320006  RH  042%=      5-min Rain = 0
KAM3 150413Z 23008KT 13/01 A2985 RMK A01 T01310005  RH  042%=      5-min Rain = 0
KAM3 150414Z 23008KT 13/01 A2985 RMK A01 T01310005  RH  042%=      5-min Rain = 0
KAM3 150415Z 23008KT 13/01 A2985 RMK A01 T01300005  RH  042%=      5-min Rain = 0
KAM3 150416Z 23009KT 13/01 A2985 RMK A01 T01290005  RH  042%=      5-min Rain = 0
KAM3 150417Z 23008KT 13/01 A2985 RMK A01 T01290005  RH  043%=      5-min Rain = 0
KAM3 150418Z 23008KT 13/00 A2985 RMK A01 T01280004  RH  043%=      5-min Rain = 0
KAM3 150419Z 23008KT 13/00 A2985 RMK A01 T01280004  RH  043%=      5-min Rain = 0
KAM3 150420Z 23008KT 13/00 A2985 RMK A01 T01270004  RH  043%=      5-min Rain = 0
KAM3 150421Z 23009KT 13/00 A2985 RMK A01 T01260003  RH  043%=      5-min Rain = 0
KAM3 150422Z 23008KT 13/00 A2985 RMK A01 T01260003  RH  043%=      5-min Rain = 0
KAM3 150423Z 23008KT 13/00 A2985 RMK A01 T01260003  RH  043%=      5-min Rain = 0
KAM3 150424Z 23007KT 13/00 A2985 RMK A01 T01260003  RH  043%=      5-min Rain = 0
KAM3 150425Z 23007KT 13/00 A2986 RMK A01 T01250002  RH  043%=      5-min Rain = 0
KAM3 150426Z 23007KT 13/00 A2986 RMK A01 T01250002  RH  043%=      5-min Rain = 0
KAM3 150427Z 23006KT 13/00 A2986 RMK A01 T01250001  RH  043%=      5-min Rain = 0
KAM3 150428Z 23006KT 13/00 A2986 RMK A01 T01250001  RH  042%=      5-min Rain = 0
KAM3 150429Z 24006KT 13/00 A2986 RMK A01 T012500-0  RH  042%=      5-min Rain = 0
KAM3 150430Z 24006KT 13/M00 A2986 RMK A01 T01251001  RH  042%=      5-min Rain = 0
KAM3 150431Z 24005KT 13/M00 A2986 RMK A01 T01251001  RH  042%=      5-min Rain = 0
KAM3 150432Z 24005KT 13/M00 A2986 RMK A01 T01251002  RH  042%=      5-min Rain = 0
KAM3 150433Z 25005KT 13/M00 A2986 RMK A01 T01261002  RH  042%=      5-min Rain = 0
KAM3 150434Z 25005KT 13/M00 A2986 RMK A01 T01261002  RH  041%=      5-min Rain = 0
KAM3 150435Z 25005KT 13/M00 A2986 RMK A01 T01251003  RH  041%=      5-min Rain = 0
KAM3 150436Z 25005KT 13/M00 A2986 RMK A01 T01261004  RH  041%=      5-min Rain = 0
KAM3 150437Z 25006KT 13/M01 A2986 RMK A01 T01271005  RH  040%=      5-min Rain = 0
KAM3 150438Z 25006KT 13/M01 A2986 RMK A01 T01281005  RH  040%=      5-min Rain = 0
KAM3 150439Z 24006KT 13/M01 A2986 RMK A01 T01271005  RH  040%=      5-min Rain = 0
KAM3 150440Z 24006KT 13/M01 A2986 RMK A01 T01261005  RH  040%=      5-min Rain = 0
KAM3 150441Z 25007KT 13/M01 A2986 RMK A01 T01251006  RH  040%=      5-min Rain = 0
KAM3 150442Z 25007KT 12/M01 A2987 RMK A01 T01241008  RH  040%=      5-min Rain = 0
KAM3 150443Z 25007KT 12/M01 A2987 RMK A01 T01241009  RH  040%=      5-min Rain = 0
KAM3 150444Z 25007KT 12/M01 A2987 RMK A01 T01241010  RH  039%=      5-min Rain = 0
KAM3 150445Z 25007KT 12/M01 A2987 RMK A01 T01241011  RH  039%=      5-min Rain = 0
KAM3 150446Z 25007KT 12/M01 A2987 RMK A01 T01241011  RH  039%=      5-min Rain = 0
KAM3 150447Z 25007KT 12/M01 A2987 RMK A01 T01231012  RH  039%=      5-min Rain = 0
KAM3 150448Z 24007KT 12/M01 A2987 RMK A01 T01221012  RH  039%=      5-min Rain = 0
KAM3 150449Z 25008KT 12/M01 A2987 RMK A01 T01221013  RH  039%=      5-min Rain = 0
KAM3 150450Z 25008KT 12/M01 A2987 RMK A01 T01201013  RH  040%=      5-min Rain = 0
KAM3 150451Z 25008KT 12/M01 A2987 RMK A01 T01201013  RH  040%=      5-min Rain = 0
KAM3 150452Z 25008KT 12/M01 A2987 RMK A01 T01191014  RH  040%=      5-min Rain = 0
KAM3 150453Z 25008KT 12/M02 A2987 RMK A01 T01181015  RH  040%=      5-min Rain = 0
KAM3 150454Z 25009KT 12/M02 A2987 RMK A01 T01181016  RH  040%=      5-min Rain = 0
KAM3 150455Z 26009KT 12/M02 A2987 RMK A01 T01181016  RH  039%=      5-min Rain = 0
KAM3 150456Z 26009KT 12/M02 A2987 RMK A01 T01181017  RH  039%=      5-min Rain = 0
KAM3 150457Z 26009KT 12/M02 A2987 RMK A01 T01181017  RH  039%=      5-min Rain = 0
KAM3 150458Z 26009KT 12/M02 A2987 RMK A01 T01181018  RH  039%=      5-min Rain = 0
KAM3 150459Z 26010KT 12/M02 A2987 RMK A01 T01171018  RH  039%=      5-min Rain = 0
KAM3 150500Z 26009KT 12/M02 A2987 RMK A01 T01161019  RH  039%=      5-min Rain = 0
KAM3 150501Z 26010KT 12/M02 A2986 RMK A01 T01151019  RH  039%=      5-min Rain = 0
KAM3 150502Z 26010KT 11/M02 A2986 RMK A01 T01131019  RH  040%=      5-min Rain = 0
KAM3 150503Z 26010KT 11/M02 A2986 RMK A01 T01131019  RH  040%=      5-min Rain = 0
KAM3 150504Z 25009KT 11/M02 A2986 RMK A01 T01121019  RH  040%=      5-min Rain = 0
KAM3 150505Z 26009KT 11/M02 A2986 RMK A01 T01101020  RH  040%=      5-min Rain = 0
KAM3 150506Z 26009KT 11/M02 A2986 RMK A01 T01091020  RH  040%=      5-min Rain = 0
KAM3 150507Z 25009KT 11/M02 A2986 RMK A01 T01091021  RH  040%=      5-min Rain = 0
KAM3 150508Z 25009KT 11/M02 A2986 RMK A01 T01081021  RH  041%=      5-min Rain = 0
KAM3 150509Z 25009KT 11/M02 A2986 RMK A01 T01081021  RH  041%=      5-min Rain = 0
KAM3 150510Z 25009KT 11/M02 A2986 RMK A01 T01071021  RH  041%=      5-min Rain = 0
KAM3 150511Z 25009KT 11/M02 A2986 RMK A01 T01061021  RH  041%=      5-min Rain = 0
KAM3 150512Z 25009KT 11/M02 A2986 RMK A01 T01051022  RH  041%=      5-min Rain = 0
KAM3 150513Z 25008KT 11/M02 A2986 RMK A01 T01051022  RH  041%=      5-min Rain = 0
KAM3 150514Z 25008KT 11/M02 A2986 RMK A01 T01051022  RH  041%=      5-min Rain = 0
KAM3 150515Z 24008KT 11/M02 A2986 RMK A01 T01051022  RH  041%=      5-min Rain = 0
KAM3 150516Z 24008KT 11/M02 A2986 RMK A01 T01051022  RH  041%=      5-min Rain = 0
KAM3 150517Z 25008KT 11/M02 A2986 RMK A01 T01051021  RH  041%=      5-min Rain = 0
KAM3 150518Z 24008KT 11/M02 A2987 RMK A01 T01061022  RH  041%=      5-min Rain = 0
KAM3 150519Z 24008KT 11/M02 A2987 RMK A01 T01061021  RH  041%=      5-min Rain = 0
KAM3 150520Z 24009KT 11/M02 A2987 RMK A01 T01051021  RH  041%=      5-min Rain = 0
KAM3 150521Z 24009KT 11/M02 A2987 RMK A01 T01051021  RH  041%=      5-min Rain = 0
KAM3 150522Z 24009KT 10/M02 A2987 RMK A01 T01041021  RH  041%=      5-min Rain = 0
KAM3 150523Z 24009KT 10/M02 A2986 RMK A01 T01041021  RH  042%=      5-min Rain = 0
KAM3 150524Z 24008KT 10/M02 A2986 RMK A01 T01041021  RH  042%=      5-min Rain = 0
KAM3 150525Z 24008KT 10/M02 A2986 RMK A01 T01041021  RH  042%=      5-min Rain = 0
KAM3 150526Z 24008KT 10/M02 A2986 RMK A01 T01041021  RH  042%=      5-min Rain = 0
KAM3 150527Z 25009KT 10/M02 A2987 RMK A01 T01041021  RH  042%=      5-min Rain = 0
KAM3 150528Z 25009KT 11/M02 A2987 RMK A01 T01051021  RH  041%=      5-min Rain = 0
KAM3 150529Z 25009KT 11/M02 A2987 RMK A01 T01051021  RH  041%=      5-min Rain = 0
KAM3 150530Z 25009KT 11/M02 A2987 RMK A01 T01051020  RH  041%=      5-min Rain = 0
KAM3 150531Z 25009KT 11/M02 A2987 RMK A01 T01051020  RH  041%=      5-min Rain = 0
KAM3 150532Z 25009KT 11/M02 A2987 RMK A01 T01061020  RH  042%=      5-min Rain = 0
KAM3 150533Z 25008KT 11/M02 A2987 RMK A01 T01051020  RH  041%=      5-min Rain = 0
KAM3 150534Z 25008KT 11/M02 A2987 RMK A01 T01051021  RH  041%=      5-min Rain = 0
KAM3 150535Z 26009KT 11/M02 A2988 RMK A01 T01061020  RH  041%=      5-min Rain = 0
KAM3 150536Z 26009KT 11/M02 A2988 RMK A01 T01051021  RH  041%=      5-min Rain = 0
KAM3 150537Z 27008KT 11/M02 A2988 RMK A01 T01061021  RH  041%=      5-min Rain = 0
KAM3 150538Z 27008KT 11/M02 A2988 RMK A01 T01071021  RH  041%=      5-min Rain = 0
KAM3 150539Z 27008KT 11/M02 A2988 RMK A01 T01071021  RH  041%=      5-min Rain = 0
KAM3 150540Z 27008KT 11/M02 A2988 RMK A01 T01061022  RH  041%=      5-min Rain = 0
KAM3 150541Z 27008KT 11/M02 A2988 RMK A01 T01051021  RH  041%=      5-min Rain = 0
KAM3 150542Z 27008KT 10/M02 A2988 RMK A01 T01041022  RH  041%=      5-min Rain = 0
KAM3 150543Z 27008KT 10/M02 A2988 RMK A01 T01021022  RH  042%=      5-min Rain = 0
KAM3 150544Z 27009KT 10/M02 A2988 RMK A01 T01011022  RH  042%=      5-min Rain = 0
KAM3 150545Z 27009KT 10/M02 A2988 RMK A01 T00991023  RH  042%=      5-min Rain = 0
KAM3 150546Z 27009KT 10/M02 A2988 RMK A01 T00981023  RH  042%=      5-min Rain = 0
KAM3 150547Z 27009KT 10/M02 A2988 RMK A01 T00981024  RH  042%=      5-min Rain = 0
KAM3 150548Z 27009KT 10/M02 A2988 RMK A01 T00991024  RH  042%=      5-min Rain = 0
KAM3 150549Z 27009KT 10/M03 A2988 RMK A01 T00991025  RH  042%=      5-min Rain = 0
KAM3 150550Z 27009KT 10/M03 A2988 RMK A01 T00991025  RH  042%=      5-min Rain = 0
KAM3 150551Z 27009KT 10/M03 A2988 RMK A01 T01001025  RH  042%=      5-min Rain = 0
KAM3 150552Z 27010KT 10/M03 A2988 RMK A01 T01001025  RH  041%=      5-min Rain = 0
KAM3 150553Z 26010KT 10/M03 A2988 RMK A01 T00991027  RH  041%=      5-min Rain = 0
KAM3 150554Z 26011KT 10/M03 A2988 RMK A01 T01001027  RH  041%=      5-min Rain = 0
KAM3 150555Z 26010KT 10/M03 A2988 RMK A01 T01001027  RH  041%=      5-min Rain = 0
KAM3 150556Z 26010KT 10/M03 A2988 RMK A01 T01001027  RH  041%=      5-min Rain = 0
KAM3 150557Z 27010KT 10/M03 A2988 RMK A01 T01011028  RH  040%=      5-min Rain = 0
KAM3 150558Z 27010KT 10/M03 A2988 RMK A01 T01021028  RH  040%=      5-min Rain = 0
KAM3 150559Z 27010KT 10/M03 A2988 RMK A01 T01031028  RH  040%=      5-min Rain = 0
KAM3 150600Z 27010KT 10/M03 A2988 RMK A01 T01031028  RH  040%=      5-min Rain = 0

Page generated in 1.1725 seconds.